<?xml version="1.0"?>
<gpx xmlns="http://www.topografix.com/GPX/1/1" xmlns:xsi="http://www.w3.org/2001/XMLSchema-instance" version="1.1" creator="GPX RubyGem 1.0.0 -- http://dougfales.github.io/gpx/" xsi:schemaLocation="http://www.topografix.com/GPX/1/1 http://www.topografix.com/GPX/1/1/gpx.xsd">
  <metadata>
    <name/>
    <time>2026-05-07T11:14:15+00:00</time>
    <bound minlat="90.0" minlon="180.0" maxlat="-90.0" maxlon="-180.0"/>
  </metadata>
  <trk>
    <name/>
    <trkseg>
      <trkpt lat="46.915105" lon="12.776209">
        <time>1970-01-01T00:00:00+00:00</time>
        <ele>1678.0</ele>
      </trkpt>
      <trkpt lat="46.914975" lon="12.776337">
        <time>1970-01-01T00:00:00+00:00</time>
        <ele>1681.0</ele>
      </trkpt>
      <trkpt lat="46.914908" lon="12.776463">
        <time>1970-01-01T00:00:00+00:00</time>
        <ele>1683.0</ele>
      </trkpt>
      <trkpt lat="46.914832" lon="12.776695">
        <time>1970-01-01T00:00:00+00:00</time>
        <ele>1681.0</ele>
      </trkpt>
      <trkpt lat="46.914739" lon="12.776696">
        <time>1970-01-01T00:00:00+00:00</time>
        <ele>1686.0</ele>
      </trkpt>
      <trkpt lat="46.914563" lon="12.776811">
        <time>1970-01-01T00:00:00+00:00</time>
        <ele>1691.0</ele>
      </trkpt>
      <trkpt lat="46.914156" lon="12.776875">
        <time>1970-01-01T00:00:00+00:00</time>
        <ele>1703.0</ele>
      </trkpt>
      <trkpt lat="46.914053" lon="12.776845">
        <time>1970-01-01T00:00:00+00:00</time>
        <ele>1704.0</ele>
      </trkpt>
      <trkpt lat="46.913925" lon="12.776854">
        <time>1970-01-01T00:00:00+00:00</time>
        <ele>1705.0</ele>
      </trkpt>
      <trkpt lat="46.913489" lon="12.777172">
        <time>1970-01-01T00:00:00+00:00</time>
        <ele>1709.0</ele>
      </trkpt>
      <trkpt lat="46.913273" lon="12.77726">
        <time>1970-01-01T00:00:00+00:00</time>
        <ele>1711.0</ele>
      </trkpt>
      <trkpt lat="46.912852" lon="12.777204">
        <time>1970-01-01T00:00:00+00:00</time>
        <ele>1717.0</ele>
      </trkpt>
      <trkpt lat="46.912757" lon="12.777295">
        <time>1970-01-01T00:00:00+00:00</time>
        <ele>1716.0</ele>
      </trkpt>
      <trkpt lat="46.912543" lon="12.777287">
        <time>1970-01-01T00:00:00+00:00</time>
        <ele>1718.0</ele>
      </trkpt>
      <trkpt lat="46.912443" lon="12.777232">
        <time>1970-01-01T00:00:00+00:00</time>
        <ele>1719.0</ele>
      </trkpt>
      <trkpt lat="46.91218" lon="12.777144">
        <time>1970-01-01T00:00:00+00:00</time>
        <ele>1724.0</ele>
      </trkpt>
      <trkpt lat="46.911738" lon="12.777105">
        <time>1970-01-01T00:00:00+00:00</time>
        <ele>1742.0</ele>
      </trkpt>
      <trkpt lat="46.911727" lon="12.776958">
        <time>1970-01-01T00:00:00+00:00</time>
        <ele>1746.0</ele>
      </trkpt>
      <trkpt lat="46.911643" lon="12.776938">
        <time>1970-01-01T00:00:00+00:00</time>
        <ele>1750.0</ele>
      </trkpt>
      <trkpt lat="46.911386" lon="12.776976">
        <time>1970-01-01T00:00:00+00:00</time>
        <ele>1751.0</ele>
      </trkpt>
      <trkpt lat="46.911096" lon="12.77693">
        <time>1970-01-01T00:00:00+00:00</time>
        <ele>1753.0</ele>
      </trkpt>
      <trkpt lat="46.911066" lon="12.776863">
        <time>1970-01-01T00:00:00+00:00</time>
        <ele>1756.0</ele>
      </trkpt>
      <trkpt lat="46.911126" lon="12.776771">
        <time>1970-01-01T00:00:00+00:00</time>
        <ele>1758.0</ele>
      </trkpt>
      <trkpt lat="46.911158" lon="12.776541">
        <time>1970-01-01T00:00:00+00:00</time>
        <ele>1765.0</ele>
      </trkpt>
      <trkpt lat="46.911055" lon="12.776549">
        <time>1970-01-01T00:00:00+00:00</time>
        <ele>1766.0</ele>
      </trkpt>
      <trkpt lat="46.910925" lon="12.776442">
        <time>1970-01-01T00:00:00+00:00</time>
        <ele>1771.0</ele>
      </trkpt>
      <trkpt lat="46.910686" lon="12.776339">
        <time>1970-01-01T00:00:00+00:00</time>
        <ele>1779.0</ele>
      </trkpt>
      <trkpt lat="46.910703" lon="12.7762">
        <time>1970-01-01T00:00:00+00:00</time>
        <ele>1782.0</ele>
      </trkpt>
      <trkpt lat="46.910765" lon="12.776113">
        <time>1970-01-01T00:00:00+00:00</time>
        <ele>1783.0</ele>
      </trkpt>
      <trkpt lat="46.910738" lon="12.776041">
        <time>1970-01-01T00:00:00+00:00</time>
        <ele>1787.0</ele>
      </trkpt>
      <trkpt lat="46.910572" lon="12.775926">
        <time>1970-01-01T00:00:00+00:00</time>
        <ele>1796.0</ele>
      </trkpt>
      <trkpt lat="46.910513" lon="12.775787">
        <time>1970-01-01T00:00:00+00:00</time>
        <ele>1803.0</ele>
      </trkpt>
      <trkpt lat="46.91022" lon="12.775863">
        <time>1970-01-01T00:00:00+00:00</time>
        <ele>1809.0</ele>
      </trkpt>
      <trkpt lat="46.90999" lon="12.775759">
        <time>1970-01-01T00:00:00+00:00</time>
        <ele>1816.0</ele>
      </trkpt>
      <trkpt lat="46.909786" lon="12.775779">
        <time>1970-01-01T00:00:00+00:00</time>
        <ele>1817.0</ele>
      </trkpt>
      <trkpt lat="46.90955" lon="12.775732">
        <time>1970-01-01T00:00:00+00:00</time>
        <ele>1821.0</ele>
      </trkpt>
      <trkpt lat="46.909342" lon="12.775815">
        <time>1970-01-01T00:00:00+00:00</time>
        <ele>1825.0</ele>
      </trkpt>
      <trkpt lat="46.909176" lon="12.77564">
        <time>1970-01-01T00:00:00+00:00</time>
        <ele>1831.0</ele>
      </trkpt>
      <trkpt lat="46.908552" lon="12.775428">
        <time>1970-01-01T00:00:00+00:00</time>
        <ele>1852.0</ele>
      </trkpt>
      <trkpt lat="46.90791" lon="12.775596">
        <time>1970-01-01T00:00:00+00:00</time>
        <ele>1879.0</ele>
      </trkpt>
      <trkpt lat="46.907852" lon="12.775322">
        <time>1970-01-01T00:00:00+00:00</time>
        <ele>1885.0</ele>
      </trkpt>
      <trkpt lat="46.907718" lon="12.77568">
        <time>1970-01-01T00:00:00+00:00</time>
        <ele>1891.0</ele>
      </trkpt>
      <trkpt lat="46.907531" lon="12.775175">
        <time>1970-01-01T00:00:00+00:00</time>
        <ele>1914.0</ele>
      </trkpt>
      <trkpt lat="46.907478" lon="12.775407">
        <time>1970-01-01T00:00:00+00:00</time>
        <ele>1914.0</ele>
      </trkpt>
      <trkpt lat="46.907363" lon="12.775379">
        <time>1970-01-01T00:00:00+00:00</time>
        <ele>1922.0</ele>
      </trkpt>
      <trkpt lat="46.907214" lon="12.774985">
        <time>1970-01-01T00:00:00+00:00</time>
        <ele>1940.0</ele>
      </trkpt>
      <trkpt lat="46.906869" lon="12.775386">
        <time>1970-01-01T00:00:00+00:00</time>
        <ele>1949.0</ele>
      </trkpt>
      <trkpt lat="46.906792" lon="12.775393">
        <time>1970-01-01T00:00:00+00:00</time>
        <ele>1951.0</ele>
      </trkpt>
      <trkpt lat="46.906816" lon="12.775273">
        <time>1970-01-01T00:00:00+00:00</time>
        <ele>1953.0</ele>
      </trkpt>
      <trkpt lat="46.906965" lon="12.774559">
        <time>1970-01-01T00:00:00+00:00</time>
        <ele>1962.0</ele>
      </trkpt>
      <trkpt lat="46.907015" lon="12.774084">
        <time>1970-01-01T00:00:00+00:00</time>
        <ele>1969.0</ele>
      </trkpt>
      <trkpt lat="46.907014" lon="12.773331">
        <time>1970-01-01T00:00:00+00:00</time>
        <ele>1976.0</ele>
      </trkpt>
      <trkpt lat="46.907124" lon="12.77301">
        <time>1970-01-01T00:00:00+00:00</time>
        <ele>1974.0</ele>
      </trkpt>
      <trkpt lat="46.907351" lon="12.772983">
        <time>1970-01-01T00:00:00+00:00</time>
        <ele>1970.0</ele>
      </trkpt>
      <trkpt lat="46.907539" lon="12.772532">
        <time>1970-01-01T00:00:00+00:00</time>
        <ele>1981.0</ele>
      </trkpt>
      <trkpt lat="46.907638" lon="12.772481">
        <time>1970-01-01T00:00:00+00:00</time>
        <ele>1981.0</ele>
      </trkpt>
      <trkpt lat="46.90748" lon="12.772365">
        <time>1970-01-01T00:00:00+00:00</time>
        <ele>1987.0</ele>
      </trkpt>
      <trkpt lat="46.907248" lon="12.771952">
        <time>1970-01-01T00:00:00+00:00</time>
        <ele>1999.0</ele>
      </trkpt>
      <trkpt lat="46.906725" lon="12.771819">
        <time>1970-01-01T00:00:00+00:00</time>
        <ele>2016.0</ele>
      </trkpt>
      <trkpt lat="46.905816" lon="12.772011">
        <time>1970-01-01T00:00:00+00:00</time>
        <ele>2055.0</ele>
      </trkpt>
      <trkpt lat="46.905358" lon="12.771973">
        <time>1970-01-01T00:00:00+00:00</time>
        <ele>2059.0</ele>
      </trkpt>
      <trkpt lat="46.9049" lon="12.770968">
        <time>1970-01-01T00:00:00+00:00</time>
        <ele>2066.0</ele>
      </trkpt>
      <trkpt lat="46.904662" lon="12.770797">
        <time>1970-01-01T00:00:00+00:00</time>
        <ele>2068.0</ele>
      </trkpt>
      <trkpt lat="46.904396" lon="12.770768">
        <time>1970-01-01T00:00:00+00:00</time>
        <ele>2075.0</ele>
      </trkpt>
      <trkpt lat="46.904279" lon="12.769695">
        <time>1970-01-01T00:00:00+00:00</time>
        <ele>2082.0</ele>
      </trkpt>
      <trkpt lat="46.904397" lon="12.769391">
        <time>1970-01-01T00:00:00+00:00</time>
        <ele>2080.0</ele>
      </trkpt>
      <trkpt lat="46.904429" lon="12.768979">
        <time>1970-01-01T00:00:00+00:00</time>
        <ele>2083.0</ele>
      </trkpt>
      <trkpt lat="46.904566" lon="12.768717">
        <time>1970-01-01T00:00:00+00:00</time>
        <ele>2084.0</ele>
      </trkpt>
      <trkpt lat="46.904778" lon="12.768802">
        <time>1970-01-01T00:00:00+00:00</time>
        <ele>2084.0</ele>
      </trkpt>
      <trkpt lat="46.904927" lon="12.768504">
        <time>1970-01-01T00:00:00+00:00</time>
        <ele>2089.0</ele>
      </trkpt>
      <trkpt lat="46.904913" lon="12.768064">
        <time>1970-01-01T00:00:00+00:00</time>
        <ele>2093.0</ele>
      </trkpt>
      <trkpt lat="46.905001" lon="12.767645">
        <time>1970-01-01T00:00:00+00:00</time>
        <ele>2098.0</ele>
      </trkpt>
      <trkpt lat="46.905022" lon="12.767041">
        <time>1970-01-01T00:00:00+00:00</time>
        <ele>2104.0</ele>
      </trkpt>
      <trkpt lat="46.904889" lon="12.765941">
        <time>1970-01-01T00:00:00+00:00</time>
        <ele>2121.0</ele>
      </trkpt>
      <trkpt lat="46.904846" lon="12.763847">
        <time>1970-01-01T00:00:00+00:00</time>
        <ele>2153.0</ele>
      </trkpt>
      <trkpt lat="46.904699" lon="12.762302">
        <time>1970-01-01T00:00:00+00:00</time>
        <ele>2166.0</ele>
      </trkpt>
      <trkpt lat="46.90379" lon="12.76183">
        <time>1970-01-01T00:00:00+00:00</time>
        <ele>2217.0</ele>
      </trkpt>
      <trkpt lat="46.902676" lon="12.761615">
        <time>1970-01-01T00:00:00+00:00</time>
        <ele>2292.0</ele>
      </trkpt>
      <trkpt lat="46.902531" lon="12.76201">
        <time>1970-01-01T00:00:00+00:00</time>
        <ele>2285.0</ele>
      </trkpt>
      <trkpt lat="46.902477" lon="12.762619">
        <time>1970-01-01T00:00:00+00:00</time>
        <ele>2275.0</ele>
      </trkpt>
      <trkpt lat="46.902537" lon="12.763564">
        <time>1970-01-01T00:00:00+00:00</time>
        <ele>2262.0</ele>
      </trkpt>
      <trkpt lat="46.902549" lon="12.76405">
        <time>1970-01-01T00:00:00+00:00</time>
        <ele>2258.0</ele>
      </trkpt>
      <trkpt lat="46.902368" lon="12.764598">
        <time>1970-01-01T00:00:00+00:00</time>
        <ele>2260.0</ele>
      </trkpt>
      <trkpt lat="46.901831" lon="12.766595">
        <time>1970-01-01T00:00:00+00:00</time>
        <ele>2238.0</ele>
      </trkpt>
      <trkpt lat="46.901523" lon="12.768167">
        <time>1970-01-01T00:00:00+00:00</time>
        <ele>2207.0</ele>
      </trkpt>
      <trkpt lat="46.901173" lon="12.770438">
        <time>1970-01-01T00:00:00+00:00</time>
        <ele>2206.0</ele>
      </trkpt>
      <trkpt lat="46.901179" lon="12.771957">
        <time>1970-01-01T00:00:00+00:00</time>
        <ele>2221.0</ele>
      </trkpt>
      <trkpt lat="46.901161" lon="12.773309">
        <time>1970-01-01T00:00:00+00:00</time>
        <ele>2218.0</ele>
      </trkpt>
      <trkpt lat="46.900931" lon="12.773495">
        <time>1970-01-01T00:00:00+00:00</time>
        <ele>2209.0</ele>
      </trkpt>
      <trkpt lat="46.90069" lon="12.773565">
        <time>1970-01-01T00:00:00+00:00</time>
        <ele>2199.0</ele>
      </trkpt>
      <trkpt lat="46.900455" lon="12.773406">
        <time>1970-01-01T00:00:00+00:00</time>
        <ele>2200.0</ele>
      </trkpt>
      <trkpt lat="46.899748" lon="12.773459">
        <time>1970-01-01T00:00:00+00:00</time>
        <ele>2179.0</ele>
      </trkpt>
      <trkpt lat="46.899169" lon="12.773433">
        <time>1970-01-01T00:00:00+00:00</time>
        <ele>2174.0</ele>
      </trkpt>
      <trkpt lat="46.898523" lon="12.773866">
        <time>1970-01-01T00:00:00+00:00</time>
        <ele>2148.0</ele>
      </trkpt>
      <trkpt lat="46.897653" lon="12.774564">
        <time>1970-01-01T00:00:00+00:00</time>
        <ele>2146.0</ele>
      </trkpt>
      <trkpt lat="46.897267" lon="12.774608">
        <time>1970-01-01T00:00:00+00:00</time>
        <ele>2157.0</ele>
      </trkpt>
      <trkpt lat="46.896386" lon="12.774157">
        <time>1970-01-01T00:00:00+00:00</time>
        <ele>2217.0</ele>
      </trkpt>
      <trkpt lat="46.896078" lon="12.773936">
        <time>1970-01-01T00:00:00+00:00</time>
        <ele>2239.0</ele>
      </trkpt>
      <trkpt lat="46.895903" lon="12.773238">
        <time>1970-01-01T00:00:00+00:00</time>
        <ele>2260.0</ele>
      </trkpt>
      <trkpt lat="46.895704" lon="12.772947">
        <time>1970-01-01T00:00:00+00:00</time>
        <ele>2277.0</ele>
      </trkpt>
      <trkpt lat="46.895251" lon="12.772417">
        <time>1970-01-01T00:00:00+00:00</time>
        <ele>2314.0</ele>
      </trkpt>
      <trkpt lat="46.895782" lon="12.771569">
        <time>1970-01-01T00:00:00+00:00</time>
        <ele>2296.0</ele>
      </trkpt>
      <trkpt lat="46.895806" lon="12.771021">
        <time>1970-01-01T00:00:00+00:00</time>
        <ele>2314.0</ele>
      </trkpt>
      <trkpt lat="46.895993" lon="12.770164">
        <time>1970-01-01T00:00:00+00:00</time>
        <ele>2329.0</ele>
      </trkpt>
      <trkpt lat="46.895806" lon="12.769837">
        <time>1970-01-01T00:00:00+00:00</time>
        <ele>2355.0</ele>
      </trkpt>
      <trkpt lat="46.89551" lon="12.769766">
        <time>1970-01-01T00:00:00+00:00</time>
        <ele>2371.0</ele>
      </trkpt>
      <trkpt lat="46.895329" lon="12.770102">
        <time>1970-01-01T00:00:00+00:00</time>
        <ele>2360.0</ele>
      </trkpt>
      <trkpt lat="46.895432" lon="12.769457">
        <time>1970-01-01T00:00:00+00:00</time>
        <ele>2383.0</ele>
      </trkpt>
      <trkpt lat="46.895945" lon="12.768353">
        <time>1970-01-01T00:00:00+00:00</time>
        <ele>2403.0</ele>
      </trkpt>
      <trkpt lat="46.895861" lon="12.768043">
        <time>1970-01-01T00:00:00+00:00</time>
        <ele>2412.0</ele>
      </trkpt>
      <trkpt lat="46.895462" lon="12.767796">
        <time>1970-01-01T00:00:00+00:00</time>
        <ele>2426.0</ele>
      </trkpt>
      <trkpt lat="46.894164" lon="12.768114">
        <time>1970-01-01T00:00:00+00:00</time>
        <ele>2432.0</ele>
      </trkpt>
      <trkpt lat="46.894005" lon="12.76807">
        <time>1970-01-01T00:00:00+00:00</time>
        <ele>2435.0</ele>
      </trkpt>
      <trkpt lat="46.89369" lon="12.76826">
        <time>1970-01-01T00:00:00+00:00</time>
        <ele>2437.0</ele>
      </trkpt>
      <trkpt lat="46.89341" lon="12.768591">
        <time>1970-01-01T00:00:00+00:00</time>
        <ele>2435.0</ele>
      </trkpt>
      <trkpt lat="46.893189" lon="12.769016">
        <time>1970-01-01T00:00:00+00:00</time>
        <ele>2434.0</ele>
      </trkpt>
      <trkpt lat="46.893153" lon="12.768901">
        <time>1970-01-01T00:00:00+00:00</time>
        <ele>2435.0</ele>
      </trkpt>
      <trkpt lat="46.893155" lon="12.768818">
        <time>1970-01-01T00:00:00+00:00</time>
        <ele>2435.0</ele>
      </trkpt>
      <trkpt lat="46.893116" lon="12.768738">
        <time>1970-01-01T00:00:00+00:00</time>
        <ele>2435.0</ele>
      </trkpt>
      <trkpt lat="46.893081" lon="12.768601">
        <time>1970-01-01T00:00:00+00:00</time>
        <ele>2436.0</ele>
      </trkpt>
      <trkpt lat="46.892977" lon="12.768607">
        <time>1970-01-01T00:00:00+00:00</time>
        <ele>2435.0</ele>
      </trkpt>
      <trkpt lat="46.892653" lon="12.768544">
        <time>1970-01-01T00:00:00+00:00</time>
        <ele>2435.0</ele>
      </trkpt>
      <trkpt lat="46.892569" lon="12.768459">
        <time>1970-01-01T00:00:00+00:00</time>
        <ele>2437.0</ele>
      </trkpt>
      <trkpt lat="46.892546" lon="12.768301">
        <time>1970-01-01T00:00:00+00:00</time>
        <ele>2438.0</ele>
      </trkpt>
      <trkpt lat="46.892328" lon="12.768031">
        <time>1970-01-01T00:00:00+00:00</time>
        <ele>2440.0</ele>
      </trkpt>
      <trkpt lat="46.89234" lon="12.767845">
        <time>1970-01-01T00:00:00+00:00</time>
        <ele>2440.0</ele>
      </trkpt>
      <trkpt lat="46.892328" lon="12.767756">
        <time>1970-01-01T00:00:00+00:00</time>
        <ele>2440.0</ele>
      </trkpt>
      <trkpt lat="46.892346" lon="12.767693">
        <time>1970-01-01T00:00:00+00:00</time>
        <ele>2440.0</ele>
      </trkpt>
      <trkpt lat="46.892322" lon="12.767539">
        <time>1970-01-01T00:00:00+00:00</time>
        <ele>2439.0</ele>
      </trkpt>
      <trkpt lat="46.892264" lon="12.767488">
        <time>1970-01-01T00:00:00+00:00</time>
        <ele>2439.0</ele>
      </trkpt>
      <trkpt lat="46.892163" lon="12.767457">
        <time>1970-01-01T00:00:00+00:00</time>
        <ele>2439.0</ele>
      </trkpt>
      <trkpt lat="46.892142" lon="12.767361">
        <time>1970-01-01T00:00:00+00:00</time>
        <ele>2439.0</ele>
      </trkpt>
      <trkpt lat="46.892047" lon="12.767215">
        <time>1970-01-01T00:00:00+00:00</time>
        <ele>2440.0</ele>
      </trkpt>
      <trkpt lat="46.892016" lon="12.767124">
        <time>1970-01-01T00:00:00+00:00</time>
        <ele>2440.0</ele>
      </trkpt>
      <trkpt lat="46.891853" lon="12.767018">
        <time>1970-01-01T00:00:00+00:00</time>
        <ele>2441.0</ele>
      </trkpt>
      <trkpt lat="46.891849" lon="12.766919">
        <time>1970-01-01T00:00:00+00:00</time>
        <ele>2441.0</ele>
      </trkpt>
      <trkpt lat="46.891804" lon="12.766826">
        <time>1970-01-01T00:00:00+00:00</time>
        <ele>2441.0</ele>
      </trkpt>
      <trkpt lat="46.891685" lon="12.766694">
        <time>1970-01-01T00:00:00+00:00</time>
        <ele>2443.0</ele>
      </trkpt>
      <trkpt lat="46.891587" lon="12.766728">
        <time>1970-01-01T00:00:00+00:00</time>
        <ele>2446.0</ele>
      </trkpt>
      <trkpt lat="46.89146" lon="12.766551">
        <time>1970-01-01T00:00:00+00:00</time>
        <ele>2449.0</ele>
      </trkpt>
      <trkpt lat="46.891368" lon="12.766483">
        <time>1970-01-01T00:00:00+00:00</time>
        <ele>2451.0</ele>
      </trkpt>
      <trkpt lat="46.891183" lon="12.766426">
        <time>1970-01-01T00:00:00+00:00</time>
        <ele>2454.0</ele>
      </trkpt>
      <trkpt lat="46.890924" lon="12.766385">
        <time>1970-01-01T00:00:00+00:00</time>
        <ele>2457.0</ele>
      </trkpt>
      <trkpt lat="46.890547" lon="12.766426">
        <time>1970-01-01T00:00:00+00:00</time>
        <ele>2459.0</ele>
      </trkpt>
      <trkpt lat="46.890423" lon="12.766421">
        <time>1970-01-01T00:00:00+00:00</time>
        <ele>2457.0</ele>
      </trkpt>
      <trkpt lat="46.890289" lon="12.766474">
        <time>1970-01-01T00:00:00+00:00</time>
        <ele>2456.0</ele>
      </trkpt>
      <trkpt lat="46.890365" lon="12.766381">
        <time>1970-01-01T00:00:00+00:00</time>
        <ele>2457.0</ele>
      </trkpt>
      <trkpt lat="46.890412" lon="12.766154">
        <time>1970-01-01T00:00:00+00:00</time>
        <ele>2457.0</ele>
      </trkpt>
      <trkpt lat="46.890496" lon="12.765968">
        <time>1970-01-01T00:00:00+00:00</time>
        <ele>2459.0</ele>
      </trkpt>
      <trkpt lat="46.890524" lon="12.765811">
        <time>1970-01-01T00:00:00+00:00</time>
        <ele>2460.0</ele>
      </trkpt>
      <trkpt lat="46.890596" lon="12.76566">
        <time>1970-01-01T00:00:00+00:00</time>
        <ele>2462.0</ele>
      </trkpt>
      <trkpt lat="46.890647" lon="12.765465">
        <time>1970-01-01T00:00:00+00:00</time>
        <ele>2464.0</ele>
      </trkpt>
      <trkpt lat="46.890771" lon="12.765413">
        <time>1970-01-01T00:00:00+00:00</time>
        <ele>2464.0</ele>
      </trkpt>
      <trkpt lat="46.890819" lon="12.765253">
        <time>1970-01-01T00:00:00+00:00</time>
        <ele>2466.0</ele>
      </trkpt>
      <trkpt lat="46.890936" lon="12.765105">
        <time>1970-01-01T00:00:00+00:00</time>
        <ele>2469.0</ele>
      </trkpt>
      <trkpt lat="46.891102" lon="12.764729">
        <time>1970-01-01T00:00:00+00:00</time>
        <ele>2474.0</ele>
      </trkpt>
      <trkpt lat="46.891108" lon="12.764558">
        <time>1970-01-01T00:00:00+00:00</time>
        <ele>2477.0</ele>
      </trkpt>
      <trkpt lat="46.891161" lon="12.764259">
        <time>1970-01-01T00:00:00+00:00</time>
        <ele>2481.0</ele>
      </trkpt>
      <trkpt lat="46.891207" lon="12.764102">
        <time>1970-01-01T00:00:00+00:00</time>
        <ele>2483.0</ele>
      </trkpt>
      <trkpt lat="46.891164" lon="12.76385">
        <time>1970-01-01T00:00:00+00:00</time>
        <ele>2484.0</ele>
      </trkpt>
      <trkpt lat="46.891271" lon="12.763705">
        <time>1970-01-01T00:00:00+00:00</time>
        <ele>2486.0</ele>
      </trkpt>
      <trkpt lat="46.891319" lon="12.763393">
        <time>1970-01-01T00:00:00+00:00</time>
        <ele>2489.0</ele>
      </trkpt>
      <trkpt lat="46.891312" lon="12.763131">
        <time>1970-01-01T00:00:00+00:00</time>
        <ele>2491.0</ele>
      </trkpt>
      <trkpt lat="46.89135" lon="12.762972">
        <time>1970-01-01T00:00:00+00:00</time>
        <ele>2494.0</ele>
      </trkpt>
      <trkpt lat="46.891419" lon="12.762889">
        <time>1970-01-01T00:00:00+00:00</time>
        <ele>2496.0</ele>
      </trkpt>
      <trkpt lat="46.891468" lon="12.76274">
        <time>1970-01-01T00:00:00+00:00</time>
        <ele>2499.0</ele>
      </trkpt>
      <trkpt lat="46.891579" lon="12.762565">
        <time>1970-01-01T00:00:00+00:00</time>
        <ele>2504.0</ele>
      </trkpt>
      <trkpt lat="46.89166" lon="12.762267">
        <time>1970-01-01T00:00:00+00:00</time>
        <ele>2508.0</ele>
      </trkpt>
      <trkpt lat="46.891681" lon="12.762114">
        <time>1970-01-01T00:00:00+00:00</time>
        <ele>2510.0</ele>
      </trkpt>
      <trkpt lat="46.89174" lon="12.76198">
        <time>1970-01-01T00:00:00+00:00</time>
        <ele>2513.0</ele>
      </trkpt>
      <trkpt lat="46.891762" lon="12.761834">
        <time>1970-01-01T00:00:00+00:00</time>
        <ele>2515.0</ele>
      </trkpt>
      <trkpt lat="46.891768" lon="12.761601">
        <time>1970-01-01T00:00:00+00:00</time>
        <ele>2516.0</ele>
      </trkpt>
      <trkpt lat="46.891729" lon="12.761295">
        <time>1970-01-01T00:00:00+00:00</time>
        <ele>2513.0</ele>
      </trkpt>
      <trkpt lat="46.891759" lon="12.761116">
        <time>1970-01-01T00:00:00+00:00</time>
        <ele>2513.0</ele>
      </trkpt>
      <trkpt lat="46.891939" lon="12.760676">
        <time>1970-01-01T00:00:00+00:00</time>
        <ele>2513.0</ele>
      </trkpt>
      <trkpt lat="46.892024" lon="12.760518">
        <time>1970-01-01T00:00:00+00:00</time>
        <ele>2512.0</ele>
      </trkpt>
      <trkpt lat="46.89216" lon="12.760338">
        <time>1970-01-01T00:00:00+00:00</time>
        <ele>2512.0</ele>
      </trkpt>
      <trkpt lat="46.892329" lon="12.759904">
        <time>1970-01-01T00:00:00+00:00</time>
        <ele>2510.0</ele>
      </trkpt>
      <trkpt lat="46.892443" lon="12.759722">
        <time>1970-01-01T00:00:00+00:00</time>
        <ele>2511.0</ele>
      </trkpt>
      <trkpt lat="46.8925" lon="12.759598">
        <time>1970-01-01T00:00:00+00:00</time>
        <ele>2510.0</ele>
      </trkpt>
      <trkpt lat="46.892617" lon="12.759232">
        <time>1970-01-01T00:00:00+00:00</time>
        <ele>2512.0</ele>
      </trkpt>
      <trkpt lat="46.892687" lon="12.75877">
        <time>1970-01-01T00:00:00+00:00</time>
        <ele>2515.0</ele>
      </trkpt>
      <trkpt lat="46.892692" lon="12.758614">
        <time>1970-01-01T00:00:00+00:00</time>
        <ele>2518.0</ele>
      </trkpt>
      <trkpt lat="46.892784" lon="12.75847">
        <time>1970-01-01T00:00:00+00:00</time>
        <ele>2520.0</ele>
      </trkpt>
      <trkpt lat="46.892823" lon="12.758354">
        <time>1970-01-01T00:00:00+00:00</time>
        <ele>2522.0</ele>
      </trkpt>
      <trkpt lat="46.892714" lon="12.758317">
        <time>1970-01-01T00:00:00+00:00</time>
        <ele>2526.0</ele>
      </trkpt>
      <trkpt lat="46.89269" lon="12.758281">
        <time>1970-01-01T00:00:00+00:00</time>
        <ele>2527.0</ele>
      </trkpt>
      <trkpt lat="46.892438" lon="12.758338">
        <time>1970-01-01T00:00:00+00:00</time>
        <ele>2531.0</ele>
      </trkpt>
      <trkpt lat="46.89239" lon="12.758282">
        <time>1970-01-01T00:00:00+00:00</time>
        <ele>2535.0</ele>
      </trkpt>
      <trkpt lat="46.892333" lon="12.758306">
        <time>1970-01-01T00:00:00+00:00</time>
        <ele>2535.0</ele>
      </trkpt>
      <trkpt lat="46.89228" lon="12.75826">
        <time>1970-01-01T00:00:00+00:00</time>
        <ele>2539.0</ele>
      </trkpt>
      <trkpt lat="46.892236" lon="12.758158">
        <time>1970-01-01T00:00:00+00:00</time>
        <ele>2545.0</ele>
      </trkpt>
      <trkpt lat="46.892071" lon="12.758167">
        <time>1970-01-01T00:00:00+00:00</time>
        <ele>2547.0</ele>
      </trkpt>
      <trkpt lat="46.891998" lon="12.757906">
        <time>1970-01-01T00:00:00+00:00</time>
        <ele>2563.0</ele>
      </trkpt>
      <trkpt lat="46.891915" lon="12.757861">
        <time>1970-01-01T00:00:00+00:00</time>
        <ele>2565.0</ele>
      </trkpt>
      <trkpt lat="46.891825" lon="12.757906">
        <time>1970-01-01T00:00:00+00:00</time>
        <ele>2563.0</ele>
      </trkpt>
      <trkpt lat="46.89171" lon="12.757786">
        <time>1970-01-01T00:00:00+00:00</time>
        <ele>2565.0</ele>
      </trkpt>
      <trkpt lat="46.891646" lon="12.757778">
        <time>1970-01-01T00:00:00+00:00</time>
        <ele>2563.0</ele>
      </trkpt>
      <trkpt lat="46.891607" lon="12.757716">
        <time>1970-01-01T00:00:00+00:00</time>
        <ele>2564.0</ele>
      </trkpt>
      <trkpt lat="46.891634" lon="12.757385">
        <time>1970-01-01T00:00:00+00:00</time>
        <ele>2572.0</ele>
      </trkpt>
      <trkpt lat="46.891695" lon="12.757182">
        <time>1970-01-01T00:00:00+00:00</time>
        <ele>2576.0</ele>
      </trkpt>
      <trkpt lat="46.891765" lon="12.757029">
        <time>1970-01-01T00:00:00+00:00</time>
        <ele>2582.0</ele>
      </trkpt>
      <trkpt lat="46.891784" lon="12.756852">
        <time>1970-01-01T00:00:00+00:00</time>
        <ele>2583.0</ele>
      </trkpt>
      <trkpt lat="46.891829" lon="12.756753">
        <time>1970-01-01T00:00:00+00:00</time>
        <ele>2586.0</ele>
      </trkpt>
      <trkpt lat="46.89184" lon="12.756664">
        <time>1970-01-01T00:00:00+00:00</time>
        <ele>2586.0</ele>
      </trkpt>
      <trkpt lat="46.891893" lon="12.756538">
        <time>1970-01-01T00:00:00+00:00</time>
        <ele>2588.0</ele>
      </trkpt>
      <trkpt lat="46.89191" lon="12.756455">
        <time>1970-01-01T00:00:00+00:00</time>
        <ele>2588.0</ele>
      </trkpt>
      <trkpt lat="46.892003" lon="12.756294">
        <time>1970-01-01T00:00:00+00:00</time>
        <ele>2592.0</ele>
      </trkpt>
      <trkpt lat="46.892084" lon="12.756225">
        <time>1970-01-01T00:00:00+00:00</time>
        <ele>2596.0</ele>
      </trkpt>
      <trkpt lat="46.892185" lon="12.75593">
        <time>1970-01-01T00:00:00+00:00</time>
        <ele>2602.0</ele>
      </trkpt>
      <trkpt lat="46.892166" lon="12.755728">
        <time>1970-01-01T00:00:00+00:00</time>
        <ele>2603.0</ele>
      </trkpt>
      <trkpt lat="46.89219" lon="12.755508">
        <time>1970-01-01T00:00:00+00:00</time>
        <ele>2607.0</ele>
      </trkpt>
      <trkpt lat="46.892186" lon="12.755085">
        <time>1970-01-01T00:00:00+00:00</time>
        <ele>2613.0</ele>
      </trkpt>
      <trkpt lat="46.892227" lon="12.754988">
        <time>1970-01-01T00:00:00+00:00</time>
        <ele>2618.0</ele>
      </trkpt>
      <trkpt lat="46.892219" lon="12.754878">
        <time>1970-01-01T00:00:00+00:00</time>
        <ele>2619.0</ele>
      </trkpt>
      <trkpt lat="46.892447" lon="12.75439">
        <time>1970-01-01T00:00:00+00:00</time>
        <ele>2636.0</ele>
      </trkpt>
      <trkpt lat="46.892604" lon="12.754256">
        <time>1970-01-01T00:00:00+00:00</time>
        <ele>2647.0</ele>
      </trkpt>
      <trkpt lat="46.892676" lon="12.754288">
        <time>1970-01-01T00:00:00+00:00</time>
        <ele>2653.0</ele>
      </trkpt>
      <trkpt lat="46.8927" lon="12.754205">
        <time>1970-01-01T00:00:00+00:00</time>
        <ele>2655.0</ele>
      </trkpt>
      <trkpt lat="46.892751" lon="12.754159">
        <time>1970-01-01T00:00:00+00:00</time>
        <ele>2660.0</ele>
      </trkpt>
      <trkpt lat="46.892817" lon="12.754213">
        <time>1970-01-01T00:00:00+00:00</time>
        <ele>2665.0</ele>
      </trkpt>
      <trkpt lat="46.892943" lon="12.75411">
        <time>1970-01-01T00:00:00+00:00</time>
        <ele>2674.0</ele>
      </trkpt>
      <trkpt lat="46.892983" lon="12.754191">
        <time>1970-01-01T00:00:00+00:00</time>
        <ele>2676.0</ele>
      </trkpt>
      <trkpt lat="46.893041" lon="12.754186">
        <time>1970-01-01T00:00:00+00:00</time>
        <ele>2679.0</ele>
      </trkpt>
      <trkpt lat="46.89311" lon="12.754103">
        <time>1970-01-01T00:00:00+00:00</time>
        <ele>2681.0</ele>
      </trkpt>
      <trkpt lat="46.893239" lon="12.754189">
        <time>1970-01-01T00:00:00+00:00</time>
        <ele>2687.0</ele>
      </trkpt>
      <trkpt lat="46.893295" lon="12.754188">
        <time>1970-01-01T00:00:00+00:00</time>
        <ele>2689.0</ele>
      </trkpt>
      <trkpt lat="46.893352" lon="12.754157">
        <time>1970-01-01T00:00:00+00:00</time>
        <ele>2691.0</ele>
      </trkpt>
      <trkpt lat="46.8934" lon="12.75417">
        <time>1970-01-01T00:00:00+00:00</time>
        <ele>2692.0</ele>
      </trkpt>
      <trkpt lat="46.893435" lon="12.754076">
        <time>1970-01-01T00:00:00+00:00</time>
        <ele>2693.0</ele>
      </trkpt>
      <trkpt lat="46.893556" lon="12.753953">
        <time>1970-01-01T00:00:00+00:00</time>
        <ele>2694.0</ele>
      </trkpt>
      <trkpt lat="46.893557" lon="12.753843">
        <time>1970-01-01T00:00:00+00:00</time>
        <ele>2695.0</ele>
      </trkpt>
      <trkpt lat="46.893493" lon="12.753615">
        <time>1970-01-01T00:00:00+00:00</time>
        <ele>2694.0</ele>
      </trkpt>
      <trkpt lat="46.893433" lon="12.75354">
        <time>1970-01-01T00:00:00+00:00</time>
        <ele>2693.0</ele>
      </trkpt>
      <trkpt lat="46.893407" lon="12.75332">
        <time>1970-01-01T00:00:00+00:00</time>
        <ele>2693.0</ele>
      </trkpt>
      <trkpt lat="46.893384" lon="12.753241">
        <time>1970-01-01T00:00:00+00:00</time>
        <ele>2693.0</ele>
      </trkpt>
      <trkpt lat="46.89347" lon="12.753119">
        <time>1970-01-01T00:00:00+00:00</time>
        <ele>2695.0</ele>
      </trkpt>
      <trkpt lat="46.893502" lon="12.752974">
        <time>1970-01-01T00:00:00+00:00</time>
        <ele>2696.0</ele>
      </trkpt>
      <trkpt lat="46.893499" lon="12.752872">
        <time>1970-01-01T00:00:00+00:00</time>
        <ele>2697.0</ele>
      </trkpt>
      <trkpt lat="46.89347" lon="12.752748">
        <time>1970-01-01T00:00:00+00:00</time>
        <ele>2697.0</ele>
      </trkpt>
      <trkpt lat="46.893519" lon="12.752649">
        <time>1970-01-01T00:00:00+00:00</time>
        <ele>2699.0</ele>
      </trkpt>
      <trkpt lat="46.893655" lon="12.752566">
        <time>1970-01-01T00:00:00+00:00</time>
        <ele>2701.0</ele>
      </trkpt>
      <trkpt lat="46.893671" lon="12.752432">
        <time>1970-01-01T00:00:00+00:00</time>
        <ele>2703.0</ele>
      </trkpt>
      <trkpt lat="46.893732" lon="12.752309">
        <time>1970-01-01T00:00:00+00:00</time>
        <ele>2707.0</ele>
      </trkpt>
      <trkpt lat="46.893746" lon="12.752191">
        <time>1970-01-01T00:00:00+00:00</time>
        <ele>2710.0</ele>
      </trkpt>
      <trkpt lat="46.893705" lon="12.751954">
        <time>1970-01-01T00:00:00+00:00</time>
        <ele>2715.0</ele>
      </trkpt>
      <trkpt lat="46.893677" lon="12.751855">
        <time>1970-01-01T00:00:00+00:00</time>
        <ele>2717.0</ele>
      </trkpt>
      <trkpt lat="46.893625" lon="12.751786">
        <time>1970-01-01T00:00:00+00:00</time>
        <ele>2718.0</ele>
      </trkpt>
      <trkpt lat="46.893623" lon="12.751673">
        <time>1970-01-01T00:00:00+00:00</time>
        <ele>2721.0</ele>
      </trkpt>
      <trkpt lat="46.893533" lon="12.751361">
        <time>1970-01-01T00:00:00+00:00</time>
        <ele>2730.0</ele>
      </trkpt>
      <trkpt lat="46.893277" lon="12.751332">
        <time>1970-01-01T00:00:00+00:00</time>
        <ele>2733.0</ele>
      </trkpt>
      <trkpt lat="46.893108" lon="12.751169">
        <time>1970-01-01T00:00:00+00:00</time>
        <ele>2742.0</ele>
      </trkpt>
      <trkpt lat="46.893007" lon="12.751155">
        <time>1970-01-01T00:00:00+00:00</time>
        <ele>2742.0</ele>
      </trkpt>
      <trkpt lat="46.892844" lon="12.751037">
        <time>1970-01-01T00:00:00+00:00</time>
        <ele>2745.0</ele>
      </trkpt>
      <trkpt lat="46.892886" lon="12.750961">
        <time>1970-01-01T00:00:00+00:00</time>
        <ele>2748.0</ele>
      </trkpt>
      <trkpt lat="46.892822" lon="12.750806">
        <time>1970-01-01T00:00:00+00:00</time>
        <ele>2747.0</ele>
      </trkpt>
      <trkpt lat="46.892936" lon="12.750705">
        <time>1970-01-01T00:00:00+00:00</time>
        <ele>2751.0</ele>
      </trkpt>
      <trkpt lat="46.893028" lon="12.750538">
        <time>1970-01-01T00:00:00+00:00</time>
        <ele>2751.0</ele>
      </trkpt>
      <trkpt lat="46.893015" lon="12.750313">
        <time>1970-01-01T00:00:00+00:00</time>
        <ele>2745.0</ele>
      </trkpt>
      <trkpt lat="46.893112" lon="12.75027">
        <time>1970-01-01T00:00:00+00:00</time>
        <ele>2751.0</ele>
      </trkpt>
      <trkpt lat="46.893281" lon="12.750066">
        <time>1970-01-01T00:00:00+00:00</time>
        <ele>2767.0</ele>
      </trkpt>
      <trkpt lat="46.893362" lon="12.750066">
        <time>1970-01-01T00:00:00+00:00</time>
        <ele>2776.0</ele>
      </trkpt>
      <trkpt lat="46.89349" lon="12.749946">
        <time>1970-01-01T00:00:00+00:00</time>
        <ele>2787.0</ele>
      </trkpt>
      <trkpt lat="46.893614" lon="12.749865">
        <time>1970-01-01T00:00:00+00:00</time>
        <ele>2794.0</ele>
      </trkpt>
      <trkpt lat="46.893682" lon="12.749771">
        <time>1970-01-01T00:00:00+00:00</time>
        <ele>2798.0</ele>
      </trkpt>
      <trkpt lat="46.893686" lon="12.749664">
        <time>1970-01-01T00:00:00+00:00</time>
        <ele>2798.0</ele>
      </trkpt>
      <trkpt lat="46.893741" lon="12.749637">
        <time>1970-01-01T00:00:00+00:00</time>
        <ele>2802.0</ele>
      </trkpt>
      <trkpt lat="46.893799" lon="12.749554">
        <time>1970-01-01T00:00:00+00:00</time>
        <ele>2807.0</ele>
      </trkpt>
      <trkpt lat="46.893909" lon="12.749498">
        <time>1970-01-01T00:00:00+00:00</time>
        <ele>2815.0</ele>
      </trkpt>
      <trkpt lat="46.89403" lon="12.749283">
        <time>1970-01-01T00:00:00+00:00</time>
        <ele>2826.0</ele>
      </trkpt>
      <trkpt lat="46.894126" lon="12.749173">
        <time>1970-01-01T00:00:00+00:00</time>
        <ele>2829.0</ele>
      </trkpt>
      <trkpt lat="46.894189" lon="12.74903">
        <time>1970-01-01T00:00:00+00:00</time>
        <ele>2831.0</ele>
      </trkpt>
      <trkpt lat="46.894261" lon="12.748936">
        <time>1970-01-01T00:00:00+00:00</time>
        <ele>2834.0</ele>
      </trkpt>
      <trkpt lat="46.894303" lon="12.748822">
        <time>1970-01-01T00:00:00+00:00</time>
        <ele>2837.0</ele>
      </trkpt>
      <trkpt lat="46.894435" lon="12.748732">
        <time>1970-01-01T00:00:00+00:00</time>
        <ele>2845.0</ele>
      </trkpt>
      <trkpt lat="46.894538" lon="12.748607">
        <time>1970-01-01T00:00:00+00:00</time>
        <ele>2846.0</ele>
      </trkpt>
      <trkpt lat="46.894595" lon="12.748602">
        <time>1970-01-01T00:00:00+00:00</time>
        <ele>2848.0</ele>
      </trkpt>
      <trkpt lat="46.894646" lon="12.748551">
        <time>1970-01-01T00:00:00+00:00</time>
        <ele>2847.0</ele>
      </trkpt>
      <trkpt lat="46.894685" lon="12.748634">
        <time>1970-01-01T00:00:00+00:00</time>
        <ele>2850.0</ele>
      </trkpt>
      <trkpt lat="46.894802" lon="12.748609">
        <time>1970-01-01T00:00:00+00:00</time>
        <ele>2850.0</ele>
      </trkpt>
      <trkpt lat="46.894822" lon="12.748534">
        <time>1970-01-01T00:00:00+00:00</time>
        <ele>2847.0</ele>
      </trkpt>
      <trkpt lat="46.894884" lon="12.748456">
        <time>1970-01-01T00:00:00+00:00</time>
        <ele>2844.0</ele>
      </trkpt>
      <trkpt lat="46.894976" lon="12.748449">
        <time>1970-01-01T00:00:00+00:00</time>
        <ele>2845.0</ele>
      </trkpt>
      <trkpt lat="46.895005" lon="12.748352">
        <time>1970-01-01T00:00:00+00:00</time>
        <ele>2841.0</ele>
      </trkpt>
      <trkpt lat="46.895012" lon="12.748247">
        <time>1970-01-01T00:00:00+00:00</time>
        <ele>2836.0</ele>
      </trkpt>
      <trkpt lat="46.894923" lon="12.748218">
        <time>1970-01-01T00:00:00+00:00</time>
        <ele>2834.0</ele>
      </trkpt>
      <trkpt lat="46.894807" lon="12.748081">
        <time>1970-01-01T00:00:00+00:00</time>
        <ele>2828.0</ele>
      </trkpt>
      <trkpt lat="46.894879" lon="12.747923">
        <time>1970-01-01T00:00:00+00:00</time>
        <ele>2820.0</ele>
      </trkpt>
      <trkpt lat="46.894816" lon="12.747791">
        <time>1970-01-01T00:00:00+00:00</time>
        <ele>2814.0</ele>
      </trkpt>
      <trkpt lat="46.894553" lon="12.747432">
        <time>1970-01-01T00:00:00+00:00</time>
        <ele>2803.0</ele>
      </trkpt>
      <trkpt lat="46.894446" lon="12.747241">
        <time>1970-01-01T00:00:00+00:00</time>
        <ele>2789.0</ele>
      </trkpt>
      <trkpt lat="46.894327" lon="12.747201">
        <time>1970-01-01T00:00:00+00:00</time>
        <ele>2783.0</ele>
      </trkpt>
      <trkpt lat="46.894228" lon="12.747105">
        <time>1970-01-01T00:00:00+00:00</time>
        <ele>2773.0</ele>
      </trkpt>
      <trkpt lat="46.894083" lon="12.747097">
        <time>1970-01-01T00:00:00+00:00</time>
        <ele>2765.0</ele>
      </trkpt>
      <trkpt lat="46.893996" lon="12.746946">
        <time>1970-01-01T00:00:00+00:00</time>
        <ele>2750.0</ele>
      </trkpt>
      <trkpt lat="46.894087" lon="12.746552">
        <time>1970-01-01T00:00:00+00:00</time>
        <ele>2738.0</ele>
      </trkpt>
      <trkpt lat="46.893981" lon="12.746313">
        <time>1970-01-01T00:00:00+00:00</time>
        <ele>2727.0</ele>
      </trkpt>
      <trkpt lat="46.893946" lon="12.746029">
        <time>1970-01-01T00:00:00+00:00</time>
        <ele>2715.0</ele>
      </trkpt>
      <trkpt lat="46.893888" lon="12.745962">
        <time>1970-01-01T00:00:00+00:00</time>
        <ele>2708.0</ele>
      </trkpt>
      <trkpt lat="46.893913" lon="12.745721">
        <time>1970-01-01T00:00:00+00:00</time>
        <ele>2698.0</ele>
      </trkpt>
      <trkpt lat="46.89379" lon="12.745305">
        <time>1970-01-01T00:00:00+00:00</time>
        <ele>2678.0</ele>
      </trkpt>
      <trkpt lat="46.893792" lon="12.74516">
        <time>1970-01-01T00:00:00+00:00</time>
        <ele>2675.0</ele>
      </trkpt>
      <trkpt lat="46.893867" lon="12.744999">
        <time>1970-01-01T00:00:00+00:00</time>
        <ele>2676.0</ele>
      </trkpt>
      <trkpt lat="46.893961" lon="12.744369">
        <time>1970-01-01T00:00:00+00:00</time>
        <ele>2680.0</ele>
      </trkpt>
      <trkpt lat="46.89395" lon="12.744162">
        <time>1970-01-01T00:00:00+00:00</time>
        <ele>2679.0</ele>
      </trkpt>
      <trkpt lat="46.893906" lon="12.744015">
        <time>1970-01-01T00:00:00+00:00</time>
        <ele>2675.0</ele>
      </trkpt>
      <trkpt lat="46.893887" lon="12.743639">
        <time>1970-01-01T00:00:00+00:00</time>
        <ele>2668.0</ele>
      </trkpt>
      <trkpt lat="46.89397" lon="12.743435">
        <time>1970-01-01T00:00:00+00:00</time>
        <ele>2669.0</ele>
      </trkpt>
      <trkpt lat="46.894223" lon="12.7431">
        <time>1970-01-01T00:00:00+00:00</time>
        <ele>2671.0</ele>
      </trkpt>
      <trkpt lat="46.894364" lon="12.743242">
        <time>1970-01-01T00:00:00+00:00</time>
        <ele>2673.0</ele>
      </trkpt>
      <trkpt lat="46.894604" lon="12.743336">
        <time>1970-01-01T00:00:00+00:00</time>
        <ele>2672.0</ele>
      </trkpt>
      <trkpt lat="46.894839" lon="12.743194">
        <time>1970-01-01T00:00:00+00:00</time>
        <ele>2667.0</ele>
      </trkpt>
      <trkpt lat="46.894918" lon="12.743044">
        <time>1970-01-01T00:00:00+00:00</time>
        <ele>2662.0</ele>
      </trkpt>
      <trkpt lat="46.895137" lon="12.74295">
        <time>1970-01-01T00:00:00+00:00</time>
        <ele>2653.0</ele>
      </trkpt>
      <trkpt lat="46.895168" lon="12.74288">
        <time>1970-01-01T00:00:00+00:00</time>
        <ele>2651.0</ele>
      </trkpt>
      <trkpt lat="46.895335" lon="12.742808">
        <time>1970-01-01T00:00:00+00:00</time>
        <ele>2648.0</ele>
      </trkpt>
      <trkpt lat="46.895427" lon="12.742733">
        <time>1970-01-01T00:00:00+00:00</time>
        <ele>2643.0</ele>
      </trkpt>
      <trkpt lat="46.895509" lon="12.742743">
        <time>1970-01-01T00:00:00+00:00</time>
        <ele>2642.0</ele>
      </trkpt>
      <trkpt lat="46.895849" lon="12.742596">
        <time>1970-01-01T00:00:00+00:00</time>
        <ele>2631.0</ele>
      </trkpt>
      <trkpt lat="46.896078" lon="12.742373">
        <time>1970-01-01T00:00:00+00:00</time>
        <ele>2621.0</ele>
      </trkpt>
      <trkpt lat="46.896298" lon="12.742126">
        <time>1970-01-01T00:00:00+00:00</time>
        <ele>2616.0</ele>
      </trkpt>
      <trkpt lat="46.896382" lon="12.741979">
        <time>1970-01-01T00:00:00+00:00</time>
        <ele>2615.0</ele>
      </trkpt>
      <trkpt lat="46.896593" lon="12.741786">
        <time>1970-01-01T00:00:00+00:00</time>
        <ele>2608.0</ele>
      </trkpt>
      <trkpt lat="46.89673" lon="12.741705">
        <time>1970-01-01T00:00:00+00:00</time>
        <ele>2604.0</ele>
      </trkpt>
      <trkpt lat="46.896814" lon="12.741542">
        <time>1970-01-01T00:00:00+00:00</time>
        <ele>2599.0</ele>
      </trkpt>
      <trkpt lat="46.896952" lon="12.7414">
        <time>1970-01-01T00:00:00+00:00</time>
        <ele>2595.0</ele>
      </trkpt>
      <trkpt lat="46.89723" lon="12.741255">
        <time>1970-01-01T00:00:00+00:00</time>
        <ele>2590.0</ele>
      </trkpt>
      <trkpt lat="46.89728" lon="12.741164">
        <time>1970-01-01T00:00:00+00:00</time>
        <ele>2588.0</ele>
      </trkpt>
      <trkpt lat="46.897457" lon="12.741043">
        <time>1970-01-01T00:00:00+00:00</time>
        <ele>2584.0</ele>
      </trkpt>
      <trkpt lat="46.897548" lon="12.741003">
        <time>1970-01-01T00:00:00+00:00</time>
        <ele>2583.0</ele>
      </trkpt>
      <trkpt lat="46.897905" lon="12.74067">
        <time>1970-01-01T00:00:00+00:00</time>
        <ele>2580.0</ele>
      </trkpt>
      <trkpt lat="46.898074" lon="12.740421">
        <time>1970-01-01T00:00:00+00:00</time>
        <ele>2575.0</ele>
      </trkpt>
      <trkpt lat="46.89839" lon="12.740241">
        <time>1970-01-01T00:00:00+00:00</time>
        <ele>2579.0</ele>
      </trkpt>
      <trkpt lat="46.898524" lon="12.739836">
        <time>1970-01-01T00:00:00+00:00</time>
        <ele>2568.0</ele>
      </trkpt>
      <trkpt lat="46.898688" lon="12.739629">
        <time>1970-01-01T00:00:00+00:00</time>
        <ele>2567.0</ele>
      </trkpt>
      <trkpt lat="46.898761" lon="12.739624">
        <time>1970-01-01T00:00:00+00:00</time>
        <ele>2569.0</ele>
      </trkpt>
      <trkpt lat="46.899118" lon="12.739316">
        <time>1970-01-01T00:00:00+00:00</time>
        <ele>2568.0</ele>
      </trkpt>
      <trkpt lat="46.899285" lon="12.739291">
        <time>1970-01-01T00:00:00+00:00</time>
        <ele>2578.0</ele>
      </trkpt>
      <trkpt lat="46.899452" lon="12.739131">
        <time>1970-01-01T00:00:00+00:00</time>
        <ele>2578.0</ele>
      </trkpt>
      <trkpt lat="46.899608" lon="12.739082">
        <time>1970-01-01T00:00:00+00:00</time>
        <ele>2582.0</ele>
      </trkpt>
      <trkpt lat="46.899866" lon="12.738696">
        <time>1970-01-01T00:00:00+00:00</time>
        <ele>2567.0</ele>
      </trkpt>
      <trkpt lat="46.900064" lon="12.738565">
        <time>1970-01-01T00:00:00+00:00</time>
        <ele>2567.0</ele>
      </trkpt>
      <trkpt lat="46.900383" lon="12.738162">
        <time>1970-01-01T00:00:00+00:00</time>
        <ele>2559.0</ele>
      </trkpt>
      <trkpt lat="46.900358" lon="12.737966">
        <time>1970-01-01T00:00:00+00:00</time>
        <ele>2551.0</ele>
      </trkpt>
      <trkpt lat="46.900393" lon="12.737867">
        <time>1970-01-01T00:00:00+00:00</time>
        <ele>2548.0</ele>
      </trkpt>
      <trkpt lat="46.900391" lon="12.737639">
        <time>1970-01-01T00:00:00+00:00</time>
        <ele>2539.0</ele>
      </trkpt>
      <trkpt lat="46.90061" lon="12.737645">
        <time>1970-01-01T00:00:00+00:00</time>
        <ele>2546.0</ele>
      </trkpt>
      <trkpt lat="46.900852" lon="12.737492">
        <time>1970-01-01T00:00:00+00:00</time>
        <ele>2549.0</ele>
      </trkpt>
      <trkpt lat="46.900876" lon="12.737358">
        <time>1970-01-01T00:00:00+00:00</time>
        <ele>2546.0</ele>
      </trkpt>
      <trkpt lat="46.900947" lon="12.737269">
        <time>1970-01-01T00:00:00+00:00</time>
        <ele>2545.0</ele>
      </trkpt>
      <trkpt lat="46.901152" lon="12.737151">
        <time>1970-01-01T00:00:00+00:00</time>
        <ele>2547.0</ele>
      </trkpt>
      <trkpt lat="46.901402" lon="12.737089">
        <time>1970-01-01T00:00:00+00:00</time>
        <ele>2550.0</ele>
      </trkpt>
      <trkpt lat="46.901531" lon="12.736789">
        <time>1970-01-01T00:00:00+00:00</time>
        <ele>2547.0</ele>
      </trkpt>
      <trkpt lat="46.901605" lon="12.736534">
        <time>1970-01-01T00:00:00+00:00</time>
        <ele>2545.0</ele>
      </trkpt>
      <trkpt lat="46.9017" lon="12.736475">
        <time>1970-01-01T00:00:00+00:00</time>
        <ele>2546.0</ele>
      </trkpt>
      <trkpt lat="46.901787" lon="12.736475">
        <time>1970-01-01T00:00:00+00:00</time>
        <ele>2548.0</ele>
      </trkpt>
      <trkpt lat="46.901842" lon="12.736378">
        <time>1970-01-01T00:00:00+00:00</time>
        <ele>2545.0</ele>
      </trkpt>
      <trkpt lat="46.901902" lon="12.736084">
        <time>1970-01-01T00:00:00+00:00</time>
        <ele>2535.0</ele>
      </trkpt>
      <trkpt lat="46.902059" lon="12.736086">
        <time>1970-01-01T00:00:00+00:00</time>
        <ele>2533.0</ele>
      </trkpt>
      <trkpt lat="46.902149" lon="12.736035">
        <time>1970-01-01T00:00:00+00:00</time>
        <ele>2529.0</ele>
      </trkpt>
      <trkpt lat="46.902164" lon="12.73592">
        <time>1970-01-01T00:00:00+00:00</time>
        <ele>2525.0</ele>
      </trkpt>
      <trkpt lat="46.902214" lon="12.73585">
        <time>1970-01-01T00:00:00+00:00</time>
        <ele>2521.0</ele>
      </trkpt>
      <trkpt lat="46.902182" lon="12.735735">
        <time>1970-01-01T00:00:00+00:00</time>
        <ele>2518.0</ele>
      </trkpt>
      <trkpt lat="46.902199" lon="12.735673">
        <time>1970-01-01T00:00:00+00:00</time>
        <ele>2515.0</ele>
      </trkpt>
      <trkpt lat="46.902314" lon="12.735566">
        <time>1970-01-01T00:00:00+00:00</time>
        <ele>2505.0</ele>
      </trkpt>
      <trkpt lat="46.902296" lon="12.735445">
        <time>1970-01-01T00:00:00+00:00</time>
        <ele>2501.0</ele>
      </trkpt>
      <trkpt lat="46.902346" lon="12.735354">
        <time>1970-01-01T00:00:00+00:00</time>
        <ele>2496.0</ele>
      </trkpt>
      <trkpt lat="46.902366" lon="12.735182">
        <time>1970-01-01T00:00:00+00:00</time>
        <ele>2490.0</ele>
      </trkpt>
      <trkpt lat="46.902424" lon="12.735129">
        <time>1970-01-01T00:00:00+00:00</time>
        <ele>2487.0</ele>
      </trkpt>
      <trkpt lat="46.902487" lon="12.734973">
        <time>1970-01-01T00:00:00+00:00</time>
        <ele>2482.0</ele>
      </trkpt>
      <trkpt lat="46.902575" lon="12.734941">
        <time>1970-01-01T00:00:00+00:00</time>
        <ele>2479.0</ele>
      </trkpt>
      <trkpt lat="46.902602" lon="12.73485">
        <time>1970-01-01T00:00:00+00:00</time>
        <ele>2475.0</ele>
      </trkpt>
      <trkpt lat="46.902663" lon="12.734756">
        <time>1970-01-01T00:00:00+00:00</time>
        <ele>2472.0</ele>
      </trkpt>
      <trkpt lat="46.902675" lon="12.734694">
        <time>1970-01-01T00:00:00+00:00</time>
        <ele>2469.0</ele>
      </trkpt>
      <trkpt lat="46.902604" lon="12.734493">
        <time>1970-01-01T00:00:00+00:00</time>
        <ele>2464.0</ele>
      </trkpt>
      <trkpt lat="46.902518" lon="12.734147">
        <time>1970-01-01T00:00:00+00:00</time>
        <ele>2458.0</ele>
      </trkpt>
      <trkpt lat="46.902529" lon="12.733935">
        <time>1970-01-01T00:00:00+00:00</time>
        <ele>2452.0</ele>
      </trkpt>
      <trkpt lat="46.902518" lon="12.733694">
        <time>1970-01-01T00:00:00+00:00</time>
        <ele>2449.0</ele>
      </trkpt>
      <trkpt lat="46.902659" lon="12.733562">
        <time>1970-01-01T00:00:00+00:00</time>
        <ele>2446.0</ele>
      </trkpt>
      <trkpt lat="46.902827" lon="12.733511">
        <time>1970-01-01T00:00:00+00:00</time>
        <ele>2444.0</ele>
      </trkpt>
      <trkpt lat="46.902993" lon="12.733382">
        <time>1970-01-01T00:00:00+00:00</time>
        <ele>2442.0</ele>
      </trkpt>
      <trkpt lat="46.903129" lon="12.733114">
        <time>1970-01-01T00:00:00+00:00</time>
        <ele>2440.0</ele>
      </trkpt>
      <trkpt lat="46.903274" lon="12.732887">
        <time>1970-01-01T00:00:00+00:00</time>
        <ele>2438.0</ele>
      </trkpt>
      <trkpt lat="46.903284" lon="12.733414">
        <time>1970-01-01T00:00:00+00:00</time>
        <ele>2437.0</ele>
      </trkpt>
      <trkpt lat="46.903373" lon="12.733979">
        <time>1970-01-01T00:00:00+00:00</time>
        <ele>2439.0</ele>
      </trkpt>
      <trkpt lat="46.903845" lon="12.734641">
        <time>1970-01-01T00:00:00+00:00</time>
        <ele>2443.0</ele>
      </trkpt>
      <trkpt lat="46.904165" lon="12.734776">
        <time>1970-01-01T00:00:00+00:00</time>
        <ele>2440.0</ele>
      </trkpt>
      <trkpt lat="46.904468" lon="12.734713">
        <time>1970-01-01T00:00:00+00:00</time>
        <ele>2441.0</ele>
      </trkpt>
      <trkpt lat="46.904851" lon="12.734428">
        <time>1970-01-01T00:00:00+00:00</time>
        <ele>2444.0</ele>
      </trkpt>
      <trkpt lat="46.905112" lon="12.734114">
        <time>1970-01-01T00:00:00+00:00</time>
        <ele>2446.0</ele>
      </trkpt>
      <trkpt lat="46.905392" lon="12.733839">
        <time>1970-01-01T00:00:00+00:00</time>
        <ele>2443.0</ele>
      </trkpt>
      <trkpt lat="46.905519" lon="12.733896">
        <time>1970-01-01T00:00:00+00:00</time>
        <ele>2445.0</ele>
      </trkpt>
      <trkpt lat="46.905647" lon="12.733922">
        <time>1970-01-01T00:00:00+00:00</time>
        <ele>2447.0</ele>
      </trkpt>
      <trkpt lat="46.905736" lon="12.734078">
        <time>1970-01-01T00:00:00+00:00</time>
        <ele>2451.0</ele>
      </trkpt>
      <trkpt lat="46.905812" lon="12.734262">
        <time>1970-01-01T00:00:00+00:00</time>
        <ele>2454.0</ele>
      </trkpt>
      <trkpt lat="46.905892" lon="12.734298">
        <time>1970-01-01T00:00:00+00:00</time>
        <ele>2456.0</ele>
      </trkpt>
      <trkpt lat="46.905888" lon="12.734586">
        <time>1970-01-01T00:00:00+00:00</time>
        <ele>2460.0</ele>
      </trkpt>
      <trkpt lat="46.905908" lon="12.734747">
        <time>1970-01-01T00:00:00+00:00</time>
        <ele>2463.0</ele>
      </trkpt>
      <trkpt lat="46.905984" lon="12.734895">
        <time>1970-01-01T00:00:00+00:00</time>
        <ele>2466.0</ele>
      </trkpt>
      <trkpt lat="46.90609" lon="12.734898">
        <time>1970-01-01T00:00:00+00:00</time>
        <ele>2468.0</ele>
      </trkpt>
      <trkpt lat="46.90647" lon="12.734609">
        <time>1970-01-01T00:00:00+00:00</time>
        <ele>2476.0</ele>
      </trkpt>
      <trkpt lat="46.906406" lon="12.735084">
        <time>1970-01-01T00:00:00+00:00</time>
        <ele>2476.0</ele>
      </trkpt>
      <trkpt lat="46.906684" lon="12.734905">
        <time>1970-01-01T00:00:00+00:00</time>
        <ele>2483.0</ele>
      </trkpt>
      <trkpt lat="46.906642" lon="12.735284">
        <time>1970-01-01T00:00:00+00:00</time>
        <ele>2485.0</ele>
      </trkpt>
      <trkpt lat="46.906904" lon="12.735118">
        <time>1970-01-01T00:00:00+00:00</time>
        <ele>2490.0</ele>
      </trkpt>
      <trkpt lat="46.906917" lon="12.735723">
        <time>1970-01-01T00:00:00+00:00</time>
        <ele>2501.0</ele>
      </trkpt>
      <trkpt lat="46.907129" lon="12.735518">
        <time>1970-01-01T00:00:00+00:00</time>
        <ele>2508.0</ele>
      </trkpt>
      <trkpt lat="46.907172" lon="12.735972">
        <time>1970-01-01T00:00:00+00:00</time>
        <ele>2520.0</ele>
      </trkpt>
      <trkpt lat="46.907385" lon="12.73564">
        <time>1970-01-01T00:00:00+00:00</time>
        <ele>2525.0</ele>
      </trkpt>
      <trkpt lat="46.907443" lon="12.736161">
        <time>1970-01-01T00:00:00+00:00</time>
        <ele>2538.0</ele>
      </trkpt>
      <trkpt lat="46.907698" lon="12.735782">
        <time>1970-01-01T00:00:00+00:00</time>
        <ele>2550.0</ele>
      </trkpt>
      <trkpt lat="46.907751" lon="12.736501">
        <time>1970-01-01T00:00:00+00:00</time>
        <ele>2566.0</ele>
      </trkpt>
      <trkpt lat="46.907996" lon="12.736091">
        <time>1970-01-01T00:00:00+00:00</time>
        <ele>2574.0</ele>
      </trkpt>
      <trkpt lat="46.908101" lon="12.736739">
        <time>1970-01-01T00:00:00+00:00</time>
        <ele>2591.0</ele>
      </trkpt>
      <trkpt lat="46.908387" lon="12.736159">
        <time>1970-01-01T00:00:00+00:00</time>
        <ele>2608.0</ele>
      </trkpt>
      <trkpt lat="46.908544" lon="12.736283">
        <time>1970-01-01T00:00:00+00:00</time>
        <ele>2618.0</ele>
      </trkpt>
      <trkpt lat="46.908706" lon="12.736795">
        <time>1970-01-01T00:00:00+00:00</time>
        <ele>2624.0</ele>
      </trkpt>
      <trkpt lat="46.908976" lon="12.737021">
        <time>1970-01-01T00:00:00+00:00</time>
        <ele>2631.0</ele>
      </trkpt>
      <trkpt lat="46.90927" lon="12.736867">
        <time>1970-01-01T00:00:00+00:00</time>
        <ele>2644.0</ele>
      </trkpt>
      <trkpt lat="46.909661" lon="12.736464">
        <time>1970-01-01T00:00:00+00:00</time>
        <ele>2654.0</ele>
      </trkpt>
      <trkpt lat="46.910003" lon="12.735936">
        <time>1970-01-01T00:00:00+00:00</time>
        <ele>2660.0</ele>
      </trkpt>
      <trkpt lat="46.91032" lon="12.735401">
        <time>1970-01-01T00:00:00+00:00</time>
        <ele>2668.0</ele>
      </trkpt>
      <trkpt lat="46.91067" lon="12.734727">
        <time>1970-01-01T00:00:00+00:00</time>
        <ele>2676.0</ele>
      </trkpt>
      <trkpt lat="46.911232" lon="12.733949">
        <time>1970-01-01T00:00:00+00:00</time>
        <ele>2688.0</ele>
      </trkpt>
      <trkpt lat="46.911232" lon="12.733949">
        <time>1970-01-01T00:00:00+00:00</time>
        <ele>2688.0</ele>
      </trkpt>
      <trkpt lat="46.91067" lon="12.734727">
        <time>1970-01-01T00:00:00+00:00</time>
        <ele>2676.0</ele>
      </trkpt>
      <trkpt lat="46.91032" lon="12.735401">
        <time>1970-01-01T00:00:00+00:00</time>
        <ele>2668.0</ele>
      </trkpt>
      <trkpt lat="46.910003" lon="12.735936">
        <time>1970-01-01T00:00:00+00:00</time>
        <ele>2660.0</ele>
      </trkpt>
      <trkpt lat="46.909661" lon="12.736464">
        <time>1970-01-01T00:00:00+00:00</time>
        <ele>2654.0</ele>
      </trkpt>
      <trkpt lat="46.90927" lon="12.736867">
        <time>1970-01-01T00:00:00+00:00</time>
        <ele>2644.0</ele>
      </trkpt>
      <trkpt lat="46.908976" lon="12.737021">
        <time>1970-01-01T00:00:00+00:00</time>
        <ele>2631.0</ele>
      </trkpt>
      <trkpt lat="46.908706" lon="12.736795">
        <time>1970-01-01T00:00:00+00:00</time>
        <ele>2624.0</ele>
      </trkpt>
      <trkpt lat="46.908544" lon="12.736283">
        <time>1970-01-01T00:00:00+00:00</time>
        <ele>2618.0</ele>
      </trkpt>
      <trkpt lat="46.908387" lon="12.736159">
        <time>1970-01-01T00:00:00+00:00</time>
        <ele>2608.0</ele>
      </trkpt>
      <trkpt lat="46.908101" lon="12.736739">
        <time>1970-01-01T00:00:00+00:00</time>
        <ele>2591.0</ele>
      </trkpt>
      <trkpt lat="46.907996" lon="12.736091">
        <time>1970-01-01T00:00:00+00:00</time>
        <ele>2574.0</ele>
      </trkpt>
      <trkpt lat="46.907751" lon="12.736501">
        <time>1970-01-01T00:00:00+00:00</time>
        <ele>2566.0</ele>
      </trkpt>
      <trkpt lat="46.907698" lon="12.735782">
        <time>1970-01-01T00:00:00+00:00</time>
        <ele>2550.0</ele>
      </trkpt>
      <trkpt lat="46.907443" lon="12.736161">
        <time>1970-01-01T00:00:00+00:00</time>
        <ele>2538.0</ele>
      </trkpt>
      <trkpt lat="46.907385" lon="12.73564">
        <time>1970-01-01T00:00:00+00:00</time>
        <ele>2525.0</ele>
      </trkpt>
      <trkpt lat="46.907172" lon="12.735972">
        <time>1970-01-01T00:00:00+00:00</time>
        <ele>2520.0</ele>
      </trkpt>
      <trkpt lat="46.907129" lon="12.735518">
        <time>1970-01-01T00:00:00+00:00</time>
        <ele>2508.0</ele>
      </trkpt>
      <trkpt lat="46.906917" lon="12.735723">
        <time>1970-01-01T00:00:00+00:00</time>
        <ele>2501.0</ele>
      </trkpt>
      <trkpt lat="46.906904" lon="12.735118">
        <time>1970-01-01T00:00:00+00:00</time>
        <ele>2490.0</ele>
      </trkpt>
      <trkpt lat="46.906642" lon="12.735284">
        <time>1970-01-01T00:00:00+00:00</time>
        <ele>2485.0</ele>
      </trkpt>
      <trkpt lat="46.906684" lon="12.734905">
        <time>1970-01-01T00:00:00+00:00</time>
        <ele>2483.0</ele>
      </trkpt>
      <trkpt lat="46.906406" lon="12.735084">
        <time>1970-01-01T00:00:00+00:00</time>
        <ele>2476.0</ele>
      </trkpt>
      <trkpt lat="46.90647" lon="12.734609">
        <time>1970-01-01T00:00:00+00:00</time>
        <ele>2476.0</ele>
      </trkpt>
      <trkpt lat="46.90609" lon="12.734898">
        <time>1970-01-01T00:00:00+00:00</time>
        <ele>2468.0</ele>
      </trkpt>
      <trkpt lat="46.905984" lon="12.734895">
        <time>1970-01-01T00:00:00+00:00</time>
        <ele>2466.0</ele>
      </trkpt>
      <trkpt lat="46.905908" lon="12.734747">
        <time>1970-01-01T00:00:00+00:00</time>
        <ele>2463.0</ele>
      </trkpt>
      <trkpt lat="46.905888" lon="12.734586">
        <time>1970-01-01T00:00:00+00:00</time>
        <ele>2460.0</ele>
      </trkpt>
      <trkpt lat="46.905892" lon="12.734298">
        <time>1970-01-01T00:00:00+00:00</time>
        <ele>2456.0</ele>
      </trkpt>
      <trkpt lat="46.905812" lon="12.734262">
        <time>1970-01-01T00:00:00+00:00</time>
        <ele>2454.0</ele>
      </trkpt>
      <trkpt lat="46.905736" lon="12.734078">
        <time>1970-01-01T00:00:00+00:00</time>
        <ele>2451.0</ele>
      </trkpt>
      <trkpt lat="46.905647" lon="12.733922">
        <time>1970-01-01T00:00:00+00:00</time>
        <ele>2447.0</ele>
      </trkpt>
      <trkpt lat="46.905519" lon="12.733896">
        <time>1970-01-01T00:00:00+00:00</time>
        <ele>2445.0</ele>
      </trkpt>
      <trkpt lat="46.905392" lon="12.733839">
        <time>1970-01-01T00:00:00+00:00</time>
        <ele>2443.0</ele>
      </trkpt>
      <trkpt lat="46.905112" lon="12.734114">
        <time>1970-01-01T00:00:00+00:00</time>
        <ele>2446.0</ele>
      </trkpt>
      <trkpt lat="46.904851" lon="12.734428">
        <time>1970-01-01T00:00:00+00:00</time>
        <ele>2444.0</ele>
      </trkpt>
      <trkpt lat="46.904468" lon="12.734713">
        <time>1970-01-01T00:00:00+00:00</time>
        <ele>2441.0</ele>
      </trkpt>
      <trkpt lat="46.904165" lon="12.734776">
        <time>1970-01-01T00:00:00+00:00</time>
        <ele>2440.0</ele>
      </trkpt>
      <trkpt lat="46.903845" lon="12.734641">
        <time>1970-01-01T00:00:00+00:00</time>
        <ele>2443.0</ele>
      </trkpt>
      <trkpt lat="46.903373" lon="12.733979">
        <time>1970-01-01T00:00:00+00:00</time>
        <ele>2439.0</ele>
      </trkpt>
      <trkpt lat="46.903284" lon="12.733414">
        <time>1970-01-01T00:00:00+00:00</time>
        <ele>2437.0</ele>
      </trkpt>
      <trkpt lat="46.903274" lon="12.732887">
        <time>1970-01-01T00:00:00+00:00</time>
        <ele>2438.0</ele>
      </trkpt>
      <trkpt lat="46.903129" lon="12.733114">
        <time>1970-01-01T00:00:00+00:00</time>
        <ele>2440.0</ele>
      </trkpt>
      <trkpt lat="46.902993" lon="12.733382">
        <time>1970-01-01T00:00:00+00:00</time>
        <ele>2442.0</ele>
      </trkpt>
      <trkpt lat="46.902827" lon="12.733511">
        <time>1970-01-01T00:00:00+00:00</time>
        <ele>2444.0</ele>
      </trkpt>
      <trkpt lat="46.902659" lon="12.733562">
        <time>1970-01-01T00:00:00+00:00</time>
        <ele>2446.0</ele>
      </trkpt>
      <trkpt lat="46.902518" lon="12.733694">
        <time>1970-01-01T00:00:00+00:00</time>
        <ele>2449.0</ele>
      </trkpt>
      <trkpt lat="46.902529" lon="12.733935">
        <time>1970-01-01T00:00:00+00:00</time>
        <ele>2452.0</ele>
      </trkpt>
      <trkpt lat="46.902518" lon="12.734147">
        <time>1970-01-01T00:00:00+00:00</time>
        <ele>2458.0</ele>
      </trkpt>
      <trkpt lat="46.902604" lon="12.734493">
        <time>1970-01-01T00:00:00+00:00</time>
        <ele>2464.0</ele>
      </trkpt>
      <trkpt lat="46.902675" lon="12.734694">
        <time>1970-01-01T00:00:00+00:00</time>
        <ele>2469.0</ele>
      </trkpt>
      <trkpt lat="46.902663" lon="12.734756">
        <time>1970-01-01T00:00:00+00:00</time>
        <ele>2472.0</ele>
      </trkpt>
      <trkpt lat="46.902602" lon="12.73485">
        <time>1970-01-01T00:00:00+00:00</time>
        <ele>2475.0</ele>
      </trkpt>
      <trkpt lat="46.902575" lon="12.734941">
        <time>1970-01-01T00:00:00+00:00</time>
        <ele>2479.0</ele>
      </trkpt>
      <trkpt lat="46.902487" lon="12.734973">
        <time>1970-01-01T00:00:00+00:00</time>
        <ele>2482.0</ele>
      </trkpt>
      <trkpt lat="46.902424" lon="12.735129">
        <time>1970-01-01T00:00:00+00:00</time>
        <ele>2487.0</ele>
      </trkpt>
      <trkpt lat="46.902366" lon="12.735182">
        <time>1970-01-01T00:00:00+00:00</time>
        <ele>2490.0</ele>
      </trkpt>
      <trkpt lat="46.902346" lon="12.735354">
        <time>1970-01-01T00:00:00+00:00</time>
        <ele>2496.0</ele>
      </trkpt>
      <trkpt lat="46.902296" lon="12.735445">
        <time>1970-01-01T00:00:00+00:00</time>
        <ele>2501.0</ele>
      </trkpt>
      <trkpt lat="46.902314" lon="12.735566">
        <time>1970-01-01T00:00:00+00:00</time>
        <ele>2505.0</ele>
      </trkpt>
      <trkpt lat="46.902199" lon="12.735673">
        <time>1970-01-01T00:00:00+00:00</time>
        <ele>2515.0</ele>
      </trkpt>
      <trkpt lat="46.902182" lon="12.735735">
        <time>1970-01-01T00:00:00+00:00</time>
        <ele>2518.0</ele>
      </trkpt>
      <trkpt lat="46.902214" lon="12.73585">
        <time>1970-01-01T00:00:00+00:00</time>
        <ele>2521.0</ele>
      </trkpt>
      <trkpt lat="46.902164" lon="12.73592">
        <time>1970-01-01T00:00:00+00:00</time>
        <ele>2525.0</ele>
      </trkpt>
      <trkpt lat="46.902149" lon="12.736035">
        <time>1970-01-01T00:00:00+00:00</time>
        <ele>2529.0</ele>
      </trkpt>
      <trkpt lat="46.902059" lon="12.736086">
        <time>1970-01-01T00:00:00+00:00</time>
        <ele>2533.0</ele>
      </trkpt>
      <trkpt lat="46.901902" lon="12.736084">
        <time>1970-01-01T00:00:00+00:00</time>
        <ele>2535.0</ele>
      </trkpt>
      <trkpt lat="46.901842" lon="12.736378">
        <time>1970-01-01T00:00:00+00:00</time>
        <ele>2545.0</ele>
      </trkpt>
      <trkpt lat="46.901787" lon="12.736475">
        <time>1970-01-01T00:00:00+00:00</time>
        <ele>2548.0</ele>
      </trkpt>
      <trkpt lat="46.9017" lon="12.736475">
        <time>1970-01-01T00:00:00+00:00</time>
        <ele>2546.0</ele>
      </trkpt>
      <trkpt lat="46.901605" lon="12.736534">
        <time>1970-01-01T00:00:00+00:00</time>
        <ele>2545.0</ele>
      </trkpt>
      <trkpt lat="46.901531" lon="12.736789">
        <time>1970-01-01T00:00:00+00:00</time>
        <ele>2547.0</ele>
      </trkpt>
      <trkpt lat="46.901402" lon="12.737089">
        <time>1970-01-01T00:00:00+00:00</time>
        <ele>2550.0</ele>
      </trkpt>
      <trkpt lat="46.901152" lon="12.737151">
        <time>1970-01-01T00:00:00+00:00</time>
        <ele>2547.0</ele>
      </trkpt>
      <trkpt lat="46.900947" lon="12.737269">
        <time>1970-01-01T00:00:00+00:00</time>
        <ele>2545.0</ele>
      </trkpt>
      <trkpt lat="46.900876" lon="12.737358">
        <time>1970-01-01T00:00:00+00:00</time>
        <ele>2546.0</ele>
      </trkpt>
      <trkpt lat="46.900852" lon="12.737492">
        <time>1970-01-01T00:00:00+00:00</time>
        <ele>2549.0</ele>
      </trkpt>
      <trkpt lat="46.90061" lon="12.737645">
        <time>1970-01-01T00:00:00+00:00</time>
        <ele>2546.0</ele>
      </trkpt>
      <trkpt lat="46.900391" lon="12.737639">
        <time>1970-01-01T00:00:00+00:00</time>
        <ele>2539.0</ele>
      </trkpt>
      <trkpt lat="46.900393" lon="12.737867">
        <time>1970-01-01T00:00:00+00:00</time>
        <ele>2548.0</ele>
      </trkpt>
      <trkpt lat="46.900358" lon="12.737966">
        <time>1970-01-01T00:00:00+00:00</time>
        <ele>2551.0</ele>
      </trkpt>
      <trkpt lat="46.900383" lon="12.738162">
        <time>1970-01-01T00:00:00+00:00</time>
        <ele>2559.0</ele>
      </trkpt>
      <trkpt lat="46.900064" lon="12.738565">
        <time>1970-01-01T00:00:00+00:00</time>
        <ele>2567.0</ele>
      </trkpt>
      <trkpt lat="46.899866" lon="12.738696">
        <time>1970-01-01T00:00:00+00:00</time>
        <ele>2567.0</ele>
      </trkpt>
      <trkpt lat="46.899608" lon="12.739082">
        <time>1970-01-01T00:00:00+00:00</time>
        <ele>2582.0</ele>
      </trkpt>
      <trkpt lat="46.899452" lon="12.739131">
        <time>1970-01-01T00:00:00+00:00</time>
        <ele>2578.0</ele>
      </trkpt>
      <trkpt lat="46.899285" lon="12.739291">
        <time>1970-01-01T00:00:00+00:00</time>
        <ele>2578.0</ele>
      </trkpt>
      <trkpt lat="46.899118" lon="12.739316">
        <time>1970-01-01T00:00:00+00:00</time>
        <ele>2568.0</ele>
      </trkpt>
      <trkpt lat="46.898761" lon="12.739624">
        <time>1970-01-01T00:00:00+00:00</time>
        <ele>2569.0</ele>
      </trkpt>
      <trkpt lat="46.898688" lon="12.739629">
        <time>1970-01-01T00:00:00+00:00</time>
        <ele>2567.0</ele>
      </trkpt>
      <trkpt lat="46.898524" lon="12.739836">
        <time>1970-01-01T00:00:00+00:00</time>
        <ele>2568.0</ele>
      </trkpt>
      <trkpt lat="46.89839" lon="12.740241">
        <time>1970-01-01T00:00:00+00:00</time>
        <ele>2579.0</ele>
      </trkpt>
      <trkpt lat="46.898074" lon="12.740421">
        <time>1970-01-01T00:00:00+00:00</time>
        <ele>2575.0</ele>
      </trkpt>
      <trkpt lat="46.897905" lon="12.74067">
        <time>1970-01-01T00:00:00+00:00</time>
        <ele>2580.0</ele>
      </trkpt>
      <trkpt lat="46.897548" lon="12.741003">
        <time>1970-01-01T00:00:00+00:00</time>
        <ele>2583.0</ele>
      </trkpt>
      <trkpt lat="46.897457" lon="12.741043">
        <time>1970-01-01T00:00:00+00:00</time>
        <ele>2584.0</ele>
      </trkpt>
      <trkpt lat="46.89728" lon="12.741164">
        <time>1970-01-01T00:00:00+00:00</time>
        <ele>2588.0</ele>
      </trkpt>
      <trkpt lat="46.89723" lon="12.741255">
        <time>1970-01-01T00:00:00+00:00</time>
        <ele>2590.0</ele>
      </trkpt>
      <trkpt lat="46.896952" lon="12.7414">
        <time>1970-01-01T00:00:00+00:00</time>
        <ele>2595.0</ele>
      </trkpt>
      <trkpt lat="46.896814" lon="12.741542">
        <time>1970-01-01T00:00:00+00:00</time>
        <ele>2599.0</ele>
      </trkpt>
      <trkpt lat="46.89673" lon="12.741705">
        <time>1970-01-01T00:00:00+00:00</time>
        <ele>2604.0</ele>
      </trkpt>
      <trkpt lat="46.896593" lon="12.741786">
        <time>1970-01-01T00:00:00+00:00</time>
        <ele>2608.0</ele>
      </trkpt>
      <trkpt lat="46.896382" lon="12.741979">
        <time>1970-01-01T00:00:00+00:00</time>
        <ele>2615.0</ele>
      </trkpt>
      <trkpt lat="46.896298" lon="12.742126">
        <time>1970-01-01T00:00:00+00:00</time>
        <ele>2616.0</ele>
      </trkpt>
      <trkpt lat="46.896078" lon="12.742373">
        <time>1970-01-01T00:00:00+00:00</time>
        <ele>2621.0</ele>
      </trkpt>
      <trkpt lat="46.895849" lon="12.742596">
        <time>1970-01-01T00:00:00+00:00</time>
        <ele>2631.0</ele>
      </trkpt>
      <trkpt lat="46.895509" lon="12.742743">
        <time>1970-01-01T00:00:00+00:00</time>
        <ele>2642.0</ele>
      </trkpt>
      <trkpt lat="46.895427" lon="12.742733">
        <time>1970-01-01T00:00:00+00:00</time>
        <ele>2643.0</ele>
      </trkpt>
      <trkpt lat="46.895335" lon="12.742808">
        <time>1970-01-01T00:00:00+00:00</time>
        <ele>2648.0</ele>
      </trkpt>
      <trkpt lat="46.895168" lon="12.74288">
        <time>1970-01-01T00:00:00+00:00</time>
        <ele>2651.0</ele>
      </trkpt>
      <trkpt lat="46.895137" lon="12.74295">
        <time>1970-01-01T00:00:00+00:00</time>
        <ele>2653.0</ele>
      </trkpt>
      <trkpt lat="46.894918" lon="12.743044">
        <time>1970-01-01T00:00:00+00:00</time>
        <ele>2662.0</ele>
      </trkpt>
      <trkpt lat="46.894839" lon="12.743194">
        <time>1970-01-01T00:00:00+00:00</time>
        <ele>2667.0</ele>
      </trkpt>
      <trkpt lat="46.894604" lon="12.743336">
        <time>1970-01-01T00:00:00+00:00</time>
        <ele>2672.0</ele>
      </trkpt>
      <trkpt lat="46.894364" lon="12.743242">
        <time>1970-01-01T00:00:00+00:00</time>
        <ele>2673.0</ele>
      </trkpt>
      <trkpt lat="46.894223" lon="12.7431">
        <time>1970-01-01T00:00:00+00:00</time>
        <ele>2671.0</ele>
      </trkpt>
      <trkpt lat="46.89397" lon="12.743435">
        <time>1970-01-01T00:00:00+00:00</time>
        <ele>2669.0</ele>
      </trkpt>
      <trkpt lat="46.893887" lon="12.743639">
        <time>1970-01-01T00:00:00+00:00</time>
        <ele>2668.0</ele>
      </trkpt>
      <trkpt lat="46.893906" lon="12.744015">
        <time>1970-01-01T00:00:00+00:00</time>
        <ele>2675.0</ele>
      </trkpt>
      <trkpt lat="46.89395" lon="12.744162">
        <time>1970-01-01T00:00:00+00:00</time>
        <ele>2679.0</ele>
      </trkpt>
      <trkpt lat="46.893961" lon="12.744369">
        <time>1970-01-01T00:00:00+00:00</time>
        <ele>2680.0</ele>
      </trkpt>
      <trkpt lat="46.893867" lon="12.744999">
        <time>1970-01-01T00:00:00+00:00</time>
        <ele>2676.0</ele>
      </trkpt>
      <trkpt lat="46.893792" lon="12.74516">
        <time>1970-01-01T00:00:00+00:00</time>
        <ele>2675.0</ele>
      </trkpt>
      <trkpt lat="46.89379" lon="12.745305">
        <time>1970-01-01T00:00:00+00:00</time>
        <ele>2678.0</ele>
      </trkpt>
      <trkpt lat="46.893913" lon="12.745721">
        <time>1970-01-01T00:00:00+00:00</time>
        <ele>2698.0</ele>
      </trkpt>
      <trkpt lat="46.893888" lon="12.745962">
        <time>1970-01-01T00:00:00+00:00</time>
        <ele>2708.0</ele>
      </trkpt>
      <trkpt lat="46.893946" lon="12.746029">
        <time>1970-01-01T00:00:00+00:00</time>
        <ele>2715.0</ele>
      </trkpt>
      <trkpt lat="46.893981" lon="12.746313">
        <time>1970-01-01T00:00:00+00:00</time>
        <ele>2727.0</ele>
      </trkpt>
      <trkpt lat="46.894087" lon="12.746552">
        <time>1970-01-01T00:00:00+00:00</time>
        <ele>2738.0</ele>
      </trkpt>
      <trkpt lat="46.893996" lon="12.746946">
        <time>1970-01-01T00:00:00+00:00</time>
        <ele>2750.0</ele>
      </trkpt>
      <trkpt lat="46.894083" lon="12.747097">
        <time>1970-01-01T00:00:00+00:00</time>
        <ele>2765.0</ele>
      </trkpt>
      <trkpt lat="46.894228" lon="12.747105">
        <time>1970-01-01T00:00:00+00:00</time>
        <ele>2773.0</ele>
      </trkpt>
      <trkpt lat="46.894327" lon="12.747201">
        <time>1970-01-01T00:00:00+00:00</time>
        <ele>2783.0</ele>
      </trkpt>
      <trkpt lat="46.894446" lon="12.747241">
        <time>1970-01-01T00:00:00+00:00</time>
        <ele>2789.0</ele>
      </trkpt>
      <trkpt lat="46.894553" lon="12.747432">
        <time>1970-01-01T00:00:00+00:00</time>
        <ele>2803.0</ele>
      </trkpt>
      <trkpt lat="46.894816" lon="12.747791">
        <time>1970-01-01T00:00:00+00:00</time>
        <ele>2814.0</ele>
      </trkpt>
      <trkpt lat="46.894879" lon="12.747923">
        <time>1970-01-01T00:00:00+00:00</time>
        <ele>2820.0</ele>
      </trkpt>
      <trkpt lat="46.894807" lon="12.748081">
        <time>1970-01-01T00:00:00+00:00</time>
        <ele>2828.0</ele>
      </trkpt>
      <trkpt lat="46.894923" lon="12.748218">
        <time>1970-01-01T00:00:00+00:00</time>
        <ele>2834.0</ele>
      </trkpt>
      <trkpt lat="46.895012" lon="12.748247">
        <time>1970-01-01T00:00:00+00:00</time>
        <ele>2836.0</ele>
      </trkpt>
      <trkpt lat="46.895005" lon="12.748352">
        <time>1970-01-01T00:00:00+00:00</time>
        <ele>2841.0</ele>
      </trkpt>
      <trkpt lat="46.894976" lon="12.748449">
        <time>1970-01-01T00:00:00+00:00</time>
        <ele>2845.0</ele>
      </trkpt>
      <trkpt lat="46.894884" lon="12.748456">
        <time>1970-01-01T00:00:00+00:00</time>
        <ele>2844.0</ele>
      </trkpt>
      <trkpt lat="46.894822" lon="12.748534">
        <time>1970-01-01T00:00:00+00:00</time>
        <ele>2847.0</ele>
      </trkpt>
      <trkpt lat="46.894802" lon="12.748609">
        <time>1970-01-01T00:00:00+00:00</time>
        <ele>2850.0</ele>
      </trkpt>
      <trkpt lat="46.894685" lon="12.748634">
        <time>1970-01-01T00:00:00+00:00</time>
        <ele>2850.0</ele>
      </trkpt>
      <trkpt lat="46.894646" lon="12.748551">
        <time>1970-01-01T00:00:00+00:00</time>
        <ele>2847.0</ele>
      </trkpt>
      <trkpt lat="46.894595" lon="12.748602">
        <time>1970-01-01T00:00:00+00:00</time>
        <ele>2848.0</ele>
      </trkpt>
      <trkpt lat="46.894538" lon="12.748607">
        <time>1970-01-01T00:00:00+00:00</time>
        <ele>2846.0</ele>
      </trkpt>
      <trkpt lat="46.894435" lon="12.748732">
        <time>1970-01-01T00:00:00+00:00</time>
        <ele>2845.0</ele>
      </trkpt>
      <trkpt lat="46.894303" lon="12.748822">
        <time>1970-01-01T00:00:00+00:00</time>
        <ele>2837.0</ele>
      </trkpt>
      <trkpt lat="46.894261" lon="12.748936">
        <time>1970-01-01T00:00:00+00:00</time>
        <ele>2834.0</ele>
      </trkpt>
      <trkpt lat="46.894189" lon="12.74903">
        <time>1970-01-01T00:00:00+00:00</time>
        <ele>2831.0</ele>
      </trkpt>
      <trkpt lat="46.894126" lon="12.749173">
        <time>1970-01-01T00:00:00+00:00</time>
        <ele>2829.0</ele>
      </trkpt>
      <trkpt lat="46.89403" lon="12.749283">
        <time>1970-01-01T00:00:00+00:00</time>
        <ele>2826.0</ele>
      </trkpt>
      <trkpt lat="46.893909" lon="12.749498">
        <time>1970-01-01T00:00:00+00:00</time>
        <ele>2815.0</ele>
      </trkpt>
      <trkpt lat="46.893799" lon="12.749554">
        <time>1970-01-01T00:00:00+00:00</time>
        <ele>2807.0</ele>
      </trkpt>
      <trkpt lat="46.893741" lon="12.749637">
        <time>1970-01-01T00:00:00+00:00</time>
        <ele>2802.0</ele>
      </trkpt>
      <trkpt lat="46.893686" lon="12.749664">
        <time>1970-01-01T00:00:00+00:00</time>
        <ele>2798.0</ele>
      </trkpt>
      <trkpt lat="46.893682" lon="12.749771">
        <time>1970-01-01T00:00:00+00:00</time>
        <ele>2798.0</ele>
      </trkpt>
      <trkpt lat="46.893614" lon="12.749865">
        <time>1970-01-01T00:00:00+00:00</time>
        <ele>2794.0</ele>
      </trkpt>
      <trkpt lat="46.89349" lon="12.749946">
        <time>1970-01-01T00:00:00+00:00</time>
        <ele>2787.0</ele>
      </trkpt>
      <trkpt lat="46.893362" lon="12.750066">
        <time>1970-01-01T00:00:00+00:00</time>
        <ele>2776.0</ele>
      </trkpt>
      <trkpt lat="46.893281" lon="12.750066">
        <time>1970-01-01T00:00:00+00:00</time>
        <ele>2767.0</ele>
      </trkpt>
      <trkpt lat="46.893112" lon="12.75027">
        <time>1970-01-01T00:00:00+00:00</time>
        <ele>2751.0</ele>
      </trkpt>
      <trkpt lat="46.893015" lon="12.750313">
        <time>1970-01-01T00:00:00+00:00</time>
        <ele>2745.0</ele>
      </trkpt>
      <trkpt lat="46.893028" lon="12.750538">
        <time>1970-01-01T00:00:00+00:00</time>
        <ele>2751.0</ele>
      </trkpt>
      <trkpt lat="46.892936" lon="12.750705">
        <time>1970-01-01T00:00:00+00:00</time>
        <ele>2751.0</ele>
      </trkpt>
      <trkpt lat="46.892822" lon="12.750806">
        <time>1970-01-01T00:00:00+00:00</time>
        <ele>2747.0</ele>
      </trkpt>
      <trkpt lat="46.892886" lon="12.750961">
        <time>1970-01-01T00:00:00+00:00</time>
        <ele>2748.0</ele>
      </trkpt>
      <trkpt lat="46.892844" lon="12.751037">
        <time>1970-01-01T00:00:00+00:00</time>
        <ele>2745.0</ele>
      </trkpt>
      <trkpt lat="46.893007" lon="12.751155">
        <time>1970-01-01T00:00:00+00:00</time>
        <ele>2742.0</ele>
      </trkpt>
      <trkpt lat="46.893108" lon="12.751169">
        <time>1970-01-01T00:00:00+00:00</time>
        <ele>2742.0</ele>
      </trkpt>
      <trkpt lat="46.893277" lon="12.751332">
        <time>1970-01-01T00:00:00+00:00</time>
        <ele>2733.0</ele>
      </trkpt>
      <trkpt lat="46.893533" lon="12.751361">
        <time>1970-01-01T00:00:00+00:00</time>
        <ele>2730.0</ele>
      </trkpt>
      <trkpt lat="46.893623" lon="12.751673">
        <time>1970-01-01T00:00:00+00:00</time>
        <ele>2721.0</ele>
      </trkpt>
      <trkpt lat="46.893625" lon="12.751786">
        <time>1970-01-01T00:00:00+00:00</time>
        <ele>2718.0</ele>
      </trkpt>
      <trkpt lat="46.893677" lon="12.751855">
        <time>1970-01-01T00:00:00+00:00</time>
        <ele>2717.0</ele>
      </trkpt>
      <trkpt lat="46.893705" lon="12.751954">
        <time>1970-01-01T00:00:00+00:00</time>
        <ele>2715.0</ele>
      </trkpt>
      <trkpt lat="46.893746" lon="12.752191">
        <time>1970-01-01T00:00:00+00:00</time>
        <ele>2710.0</ele>
      </trkpt>
      <trkpt lat="46.893732" lon="12.752309">
        <time>1970-01-01T00:00:00+00:00</time>
        <ele>2707.0</ele>
      </trkpt>
      <trkpt lat="46.893671" lon="12.752432">
        <time>1970-01-01T00:00:00+00:00</time>
        <ele>2703.0</ele>
      </trkpt>
      <trkpt lat="46.893655" lon="12.752566">
        <time>1970-01-01T00:00:00+00:00</time>
        <ele>2701.0</ele>
      </trkpt>
      <trkpt lat="46.893519" lon="12.752649">
        <time>1970-01-01T00:00:00+00:00</time>
        <ele>2699.0</ele>
      </trkpt>
      <trkpt lat="46.89347" lon="12.752748">
        <time>1970-01-01T00:00:00+00:00</time>
        <ele>2697.0</ele>
      </trkpt>
      <trkpt lat="46.893499" lon="12.752872">
        <time>1970-01-01T00:00:00+00:00</time>
        <ele>2697.0</ele>
      </trkpt>
      <trkpt lat="46.893502" lon="12.752974">
        <time>1970-01-01T00:00:00+00:00</time>
        <ele>2696.0</ele>
      </trkpt>
      <trkpt lat="46.89347" lon="12.753119">
        <time>1970-01-01T00:00:00+00:00</time>
        <ele>2695.0</ele>
      </trkpt>
      <trkpt lat="46.893384" lon="12.753241">
        <time>1970-01-01T00:00:00+00:00</time>
        <ele>2693.0</ele>
      </trkpt>
      <trkpt lat="46.893407" lon="12.75332">
        <time>1970-01-01T00:00:00+00:00</time>
        <ele>2693.0</ele>
      </trkpt>
      <trkpt lat="46.893433" lon="12.75354">
        <time>1970-01-01T00:00:00+00:00</time>
        <ele>2693.0</ele>
      </trkpt>
      <trkpt lat="46.893493" lon="12.753615">
        <time>1970-01-01T00:00:00+00:00</time>
        <ele>2694.0</ele>
      </trkpt>
      <trkpt lat="46.893557" lon="12.753843">
        <time>1970-01-01T00:00:00+00:00</time>
        <ele>2695.0</ele>
      </trkpt>
      <trkpt lat="46.893556" lon="12.753953">
        <time>1970-01-01T00:00:00+00:00</time>
        <ele>2694.0</ele>
      </trkpt>
      <trkpt lat="46.893435" lon="12.754076">
        <time>1970-01-01T00:00:00+00:00</time>
        <ele>2693.0</ele>
      </trkpt>
      <trkpt lat="46.8934" lon="12.75417">
        <time>1970-01-01T00:00:00+00:00</time>
        <ele>2692.0</ele>
      </trkpt>
      <trkpt lat="46.893352" lon="12.754157">
        <time>1970-01-01T00:00:00+00:00</time>
        <ele>2691.0</ele>
      </trkpt>
      <trkpt lat="46.893295" lon="12.754188">
        <time>1970-01-01T00:00:00+00:00</time>
        <ele>2689.0</ele>
      </trkpt>
      <trkpt lat="46.893239" lon="12.754189">
        <time>1970-01-01T00:00:00+00:00</time>
        <ele>2687.0</ele>
      </trkpt>
      <trkpt lat="46.89311" lon="12.754103">
        <time>1970-01-01T00:00:00+00:00</time>
        <ele>2681.0</ele>
      </trkpt>
      <trkpt lat="46.893041" lon="12.754186">
        <time>1970-01-01T00:00:00+00:00</time>
        <ele>2679.0</ele>
      </trkpt>
      <trkpt lat="46.892983" lon="12.754191">
        <time>1970-01-01T00:00:00+00:00</time>
        <ele>2676.0</ele>
      </trkpt>
      <trkpt lat="46.892943" lon="12.75411">
        <time>1970-01-01T00:00:00+00:00</time>
        <ele>2674.0</ele>
      </trkpt>
      <trkpt lat="46.892817" lon="12.754213">
        <time>1970-01-01T00:00:00+00:00</time>
        <ele>2665.0</ele>
      </trkpt>
      <trkpt lat="46.892751" lon="12.754159">
        <time>1970-01-01T00:00:00+00:00</time>
        <ele>2660.0</ele>
      </trkpt>
      <trkpt lat="46.8927" lon="12.754205">
        <time>1970-01-01T00:00:00+00:00</time>
        <ele>2655.0</ele>
      </trkpt>
      <trkpt lat="46.892676" lon="12.754288">
        <time>1970-01-01T00:00:00+00:00</time>
        <ele>2653.0</ele>
      </trkpt>
      <trkpt lat="46.892604" lon="12.754256">
        <time>1970-01-01T00:00:00+00:00</time>
        <ele>2647.0</ele>
      </trkpt>
      <trkpt lat="46.892447" lon="12.75439">
        <time>1970-01-01T00:00:00+00:00</time>
        <ele>2636.0</ele>
      </trkpt>
      <trkpt lat="46.892219" lon="12.754878">
        <time>1970-01-01T00:00:00+00:00</time>
        <ele>2619.0</ele>
      </trkpt>
      <trkpt lat="46.892227" lon="12.754988">
        <time>1970-01-01T00:00:00+00:00</time>
        <ele>2618.0</ele>
      </trkpt>
      <trkpt lat="46.892186" lon="12.755085">
        <time>1970-01-01T00:00:00+00:00</time>
        <ele>2613.0</ele>
      </trkpt>
      <trkpt lat="46.89219" lon="12.755508">
        <time>1970-01-01T00:00:00+00:00</time>
        <ele>2607.0</ele>
      </trkpt>
      <trkpt lat="46.892166" lon="12.755728">
        <time>1970-01-01T00:00:00+00:00</time>
        <ele>2603.0</ele>
      </trkpt>
      <trkpt lat="46.892185" lon="12.75593">
        <time>1970-01-01T00:00:00+00:00</time>
        <ele>2602.0</ele>
      </trkpt>
      <trkpt lat="46.892084" lon="12.756225">
        <time>1970-01-01T00:00:00+00:00</time>
        <ele>2596.0</ele>
      </trkpt>
      <trkpt lat="46.892003" lon="12.756294">
        <time>1970-01-01T00:00:00+00:00</time>
        <ele>2592.0</ele>
      </trkpt>
      <trkpt lat="46.89191" lon="12.756455">
        <time>1970-01-01T00:00:00+00:00</time>
        <ele>2588.0</ele>
      </trkpt>
      <trkpt lat="46.891893" lon="12.756538">
        <time>1970-01-01T00:00:00+00:00</time>
        <ele>2588.0</ele>
      </trkpt>
      <trkpt lat="46.89184" lon="12.756664">
        <time>1970-01-01T00:00:00+00:00</time>
        <ele>2586.0</ele>
      </trkpt>
      <trkpt lat="46.891829" lon="12.756753">
        <time>1970-01-01T00:00:00+00:00</time>
        <ele>2586.0</ele>
      </trkpt>
      <trkpt lat="46.891784" lon="12.756852">
        <time>1970-01-01T00:00:00+00:00</time>
        <ele>2583.0</ele>
      </trkpt>
      <trkpt lat="46.891765" lon="12.757029">
        <time>1970-01-01T00:00:00+00:00</time>
        <ele>2582.0</ele>
      </trkpt>
      <trkpt lat="46.891695" lon="12.757182">
        <time>1970-01-01T00:00:00+00:00</time>
        <ele>2576.0</ele>
      </trkpt>
      <trkpt lat="46.891634" lon="12.757385">
        <time>1970-01-01T00:00:00+00:00</time>
        <ele>2572.0</ele>
      </trkpt>
      <trkpt lat="46.891607" lon="12.757716">
        <time>1970-01-01T00:00:00+00:00</time>
        <ele>2564.0</ele>
      </trkpt>
      <trkpt lat="46.891646" lon="12.757778">
        <time>1970-01-01T00:00:00+00:00</time>
        <ele>2563.0</ele>
      </trkpt>
      <trkpt lat="46.89171" lon="12.757786">
        <time>1970-01-01T00:00:00+00:00</time>
        <ele>2565.0</ele>
      </trkpt>
      <trkpt lat="46.891825" lon="12.757906">
        <time>1970-01-01T00:00:00+00:00</time>
        <ele>2563.0</ele>
      </trkpt>
      <trkpt lat="46.891915" lon="12.757861">
        <time>1970-01-01T00:00:00+00:00</time>
        <ele>2565.0</ele>
      </trkpt>
      <trkpt lat="46.891998" lon="12.757906">
        <time>1970-01-01T00:00:00+00:00</time>
        <ele>2563.0</ele>
      </trkpt>
      <trkpt lat="46.892071" lon="12.758167">
        <time>1970-01-01T00:00:00+00:00</time>
        <ele>2547.0</ele>
      </trkpt>
      <trkpt lat="46.892236" lon="12.758158">
        <time>1970-01-01T00:00:00+00:00</time>
        <ele>2545.0</ele>
      </trkpt>
      <trkpt lat="46.89228" lon="12.75826">
        <time>1970-01-01T00:00:00+00:00</time>
        <ele>2539.0</ele>
      </trkpt>
      <trkpt lat="46.892333" lon="12.758306">
        <time>1970-01-01T00:00:00+00:00</time>
        <ele>2535.0</ele>
      </trkpt>
      <trkpt lat="46.89239" lon="12.758282">
        <time>1970-01-01T00:00:00+00:00</time>
        <ele>2535.0</ele>
      </trkpt>
      <trkpt lat="46.892438" lon="12.758338">
        <time>1970-01-01T00:00:00+00:00</time>
        <ele>2531.0</ele>
      </trkpt>
      <trkpt lat="46.89269" lon="12.758281">
        <time>1970-01-01T00:00:00+00:00</time>
        <ele>2527.0</ele>
      </trkpt>
      <trkpt lat="46.892714" lon="12.758317">
        <time>1970-01-01T00:00:00+00:00</time>
        <ele>2526.0</ele>
      </trkpt>
      <trkpt lat="46.892823" lon="12.758354">
        <time>1970-01-01T00:00:00+00:00</time>
        <ele>2522.0</ele>
      </trkpt>
      <trkpt lat="46.892784" lon="12.75847">
        <time>1970-01-01T00:00:00+00:00</time>
        <ele>2520.0</ele>
      </trkpt>
      <trkpt lat="46.892692" lon="12.758614">
        <time>1970-01-01T00:00:00+00:00</time>
        <ele>2518.0</ele>
      </trkpt>
      <trkpt lat="46.892687" lon="12.75877">
        <time>1970-01-01T00:00:00+00:00</time>
        <ele>2515.0</ele>
      </trkpt>
      <trkpt lat="46.892617" lon="12.759232">
        <time>1970-01-01T00:00:00+00:00</time>
        <ele>2512.0</ele>
      </trkpt>
      <trkpt lat="46.8925" lon="12.759598">
        <time>1970-01-01T00:00:00+00:00</time>
        <ele>2510.0</ele>
      </trkpt>
      <trkpt lat="46.892443" lon="12.759722">
        <time>1970-01-01T00:00:00+00:00</time>
        <ele>2511.0</ele>
      </trkpt>
      <trkpt lat="46.892329" lon="12.759904">
        <time>1970-01-01T00:00:00+00:00</time>
        <ele>2510.0</ele>
      </trkpt>
      <trkpt lat="46.89216" lon="12.760338">
        <time>1970-01-01T00:00:00+00:00</time>
        <ele>2512.0</ele>
      </trkpt>
      <trkpt lat="46.892024" lon="12.760518">
        <time>1970-01-01T00:00:00+00:00</time>
        <ele>2512.0</ele>
      </trkpt>
      <trkpt lat="46.891939" lon="12.760676">
        <time>1970-01-01T00:00:00+00:00</time>
        <ele>2513.0</ele>
      </trkpt>
      <trkpt lat="46.891759" lon="12.761116">
        <time>1970-01-01T00:00:00+00:00</time>
        <ele>2513.0</ele>
      </trkpt>
      <trkpt lat="46.891729" lon="12.761295">
        <time>1970-01-01T00:00:00+00:00</time>
        <ele>2513.0</ele>
      </trkpt>
      <trkpt lat="46.891768" lon="12.761601">
        <time>1970-01-01T00:00:00+00:00</time>
        <ele>2516.0</ele>
      </trkpt>
      <trkpt lat="46.891762" lon="12.761834">
        <time>1970-01-01T00:00:00+00:00</time>
        <ele>2515.0</ele>
      </trkpt>
      <trkpt lat="46.89174" lon="12.76198">
        <time>1970-01-01T00:00:00+00:00</time>
        <ele>2513.0</ele>
      </trkpt>
      <trkpt lat="46.891681" lon="12.762114">
        <time>1970-01-01T00:00:00+00:00</time>
        <ele>2510.0</ele>
      </trkpt>
      <trkpt lat="46.89166" lon="12.762267">
        <time>1970-01-01T00:00:00+00:00</time>
        <ele>2508.0</ele>
      </trkpt>
      <trkpt lat="46.891579" lon="12.762565">
        <time>1970-01-01T00:00:00+00:00</time>
        <ele>2504.0</ele>
      </trkpt>
      <trkpt lat="46.891468" lon="12.76274">
        <time>1970-01-01T00:00:00+00:00</time>
        <ele>2499.0</ele>
      </trkpt>
      <trkpt lat="46.891419" lon="12.762889">
        <time>1970-01-01T00:00:00+00:00</time>
        <ele>2496.0</ele>
      </trkpt>
      <trkpt lat="46.89135" lon="12.762972">
        <time>1970-01-01T00:00:00+00:00</time>
        <ele>2494.0</ele>
      </trkpt>
      <trkpt lat="46.891312" lon="12.763131">
        <time>1970-01-01T00:00:00+00:00</time>
        <ele>2491.0</ele>
      </trkpt>
      <trkpt lat="46.891319" lon="12.763393">
        <time>1970-01-01T00:00:00+00:00</time>
        <ele>2489.0</ele>
      </trkpt>
      <trkpt lat="46.891271" lon="12.763705">
        <time>1970-01-01T00:00:00+00:00</time>
        <ele>2486.0</ele>
      </trkpt>
      <trkpt lat="46.891164" lon="12.76385">
        <time>1970-01-01T00:00:00+00:00</time>
        <ele>2484.0</ele>
      </trkpt>
      <trkpt lat="46.891207" lon="12.764102">
        <time>1970-01-01T00:00:00+00:00</time>
        <ele>2483.0</ele>
      </trkpt>
      <trkpt lat="46.891161" lon="12.764259">
        <time>1970-01-01T00:00:00+00:00</time>
        <ele>2481.0</ele>
      </trkpt>
      <trkpt lat="46.891108" lon="12.764558">
        <time>1970-01-01T00:00:00+00:00</time>
        <ele>2477.0</ele>
      </trkpt>
      <trkpt lat="46.891102" lon="12.764729">
        <time>1970-01-01T00:00:00+00:00</time>
        <ele>2474.0</ele>
      </trkpt>
      <trkpt lat="46.890936" lon="12.765105">
        <time>1970-01-01T00:00:00+00:00</time>
        <ele>2469.0</ele>
      </trkpt>
      <trkpt lat="46.890819" lon="12.765253">
        <time>1970-01-01T00:00:00+00:00</time>
        <ele>2466.0</ele>
      </trkpt>
      <trkpt lat="46.890771" lon="12.765413">
        <time>1970-01-01T00:00:00+00:00</time>
        <ele>2464.0</ele>
      </trkpt>
      <trkpt lat="46.890647" lon="12.765465">
        <time>1970-01-01T00:00:00+00:00</time>
        <ele>2464.0</ele>
      </trkpt>
      <trkpt lat="46.890596" lon="12.76566">
        <time>1970-01-01T00:00:00+00:00</time>
        <ele>2462.0</ele>
      </trkpt>
      <trkpt lat="46.890524" lon="12.765811">
        <time>1970-01-01T00:00:00+00:00</time>
        <ele>2460.0</ele>
      </trkpt>
      <trkpt lat="46.890496" lon="12.765968">
        <time>1970-01-01T00:00:00+00:00</time>
        <ele>2459.0</ele>
      </trkpt>
      <trkpt lat="46.890412" lon="12.766154">
        <time>1970-01-01T00:00:00+00:00</time>
        <ele>2457.0</ele>
      </trkpt>
      <trkpt lat="46.890365" lon="12.766381">
        <time>1970-01-01T00:00:00+00:00</time>
        <ele>2457.0</ele>
      </trkpt>
      <trkpt lat="46.890289" lon="12.766474">
        <time>1970-01-01T00:00:00+00:00</time>
        <ele>2456.0</ele>
      </trkpt>
      <trkpt lat="46.890423" lon="12.766421">
        <time>1970-01-01T00:00:00+00:00</time>
        <ele>2457.0</ele>
      </trkpt>
      <trkpt lat="46.890547" lon="12.766426">
        <time>1970-01-01T00:00:00+00:00</time>
        <ele>2459.0</ele>
      </trkpt>
      <trkpt lat="46.890924" lon="12.766385">
        <time>1970-01-01T00:00:00+00:00</time>
        <ele>2457.0</ele>
      </trkpt>
      <trkpt lat="46.891183" lon="12.766426">
        <time>1970-01-01T00:00:00+00:00</time>
        <ele>2454.0</ele>
      </trkpt>
      <trkpt lat="46.891368" lon="12.766483">
        <time>1970-01-01T00:00:00+00:00</time>
        <ele>2451.0</ele>
      </trkpt>
      <trkpt lat="46.89146" lon="12.766551">
        <time>1970-01-01T00:00:00+00:00</time>
        <ele>2449.0</ele>
      </trkpt>
      <trkpt lat="46.891587" lon="12.766728">
        <time>1970-01-01T00:00:00+00:00</time>
        <ele>2446.0</ele>
      </trkpt>
      <trkpt lat="46.891685" lon="12.766694">
        <time>1970-01-01T00:00:00+00:00</time>
        <ele>2443.0</ele>
      </trkpt>
      <trkpt lat="46.891804" lon="12.766826">
        <time>1970-01-01T00:00:00+00:00</time>
        <ele>2441.0</ele>
      </trkpt>
      <trkpt lat="46.891849" lon="12.766919">
        <time>1970-01-01T00:00:00+00:00</time>
        <ele>2441.0</ele>
      </trkpt>
      <trkpt lat="46.891853" lon="12.767018">
        <time>1970-01-01T00:00:00+00:00</time>
        <ele>2441.0</ele>
      </trkpt>
      <trkpt lat="46.892016" lon="12.767124">
        <time>1970-01-01T00:00:00+00:00</time>
        <ele>2440.0</ele>
      </trkpt>
      <trkpt lat="46.892047" lon="12.767215">
        <time>1970-01-01T00:00:00+00:00</time>
        <ele>2440.0</ele>
      </trkpt>
      <trkpt lat="46.892142" lon="12.767361">
        <time>1970-01-01T00:00:00+00:00</time>
        <ele>2439.0</ele>
      </trkpt>
      <trkpt lat="46.892163" lon="12.767457">
        <time>1970-01-01T00:00:00+00:00</time>
        <ele>2439.0</ele>
      </trkpt>
      <trkpt lat="46.892264" lon="12.767488">
        <time>1970-01-01T00:00:00+00:00</time>
        <ele>2439.0</ele>
      </trkpt>
      <trkpt lat="46.892322" lon="12.767539">
        <time>1970-01-01T00:00:00+00:00</time>
        <ele>2439.0</ele>
      </trkpt>
      <trkpt lat="46.892346" lon="12.767693">
        <time>1970-01-01T00:00:00+00:00</time>
        <ele>2440.0</ele>
      </trkpt>
      <trkpt lat="46.892328" lon="12.767756">
        <time>1970-01-01T00:00:00+00:00</time>
        <ele>2440.0</ele>
      </trkpt>
      <trkpt lat="46.89234" lon="12.767845">
        <time>1970-01-01T00:00:00+00:00</time>
        <ele>2440.0</ele>
      </trkpt>
      <trkpt lat="46.892328" lon="12.768031">
        <time>1970-01-01T00:00:00+00:00</time>
        <ele>2440.0</ele>
      </trkpt>
      <trkpt lat="46.892546" lon="12.768301">
        <time>1970-01-01T00:00:00+00:00</time>
        <ele>2438.0</ele>
      </trkpt>
      <trkpt lat="46.892569" lon="12.768459">
        <time>1970-01-01T00:00:00+00:00</time>
        <ele>2437.0</ele>
      </trkpt>
      <trkpt lat="46.892653" lon="12.768544">
        <time>1970-01-01T00:00:00+00:00</time>
        <ele>2435.0</ele>
      </trkpt>
      <trkpt lat="46.892977" lon="12.768607">
        <time>1970-01-01T00:00:00+00:00</time>
        <ele>2435.0</ele>
      </trkpt>
      <trkpt lat="46.893081" lon="12.768601">
        <time>1970-01-01T00:00:00+00:00</time>
        <ele>2436.0</ele>
      </trkpt>
      <trkpt lat="46.893116" lon="12.768738">
        <time>1970-01-01T00:00:00+00:00</time>
        <ele>2435.0</ele>
      </trkpt>
      <trkpt lat="46.893155" lon="12.768818">
        <time>1970-01-01T00:00:00+00:00</time>
        <ele>2435.0</ele>
      </trkpt>
      <trkpt lat="46.893153" lon="12.768901">
        <time>1970-01-01T00:00:00+00:00</time>
        <ele>2435.0</ele>
      </trkpt>
      <trkpt lat="46.893189" lon="12.769016">
        <time>1970-01-01T00:00:00+00:00</time>
        <ele>2434.0</ele>
      </trkpt>
      <trkpt lat="46.89341" lon="12.768591">
        <time>1970-01-01T00:00:00+00:00</time>
        <ele>2435.0</ele>
      </trkpt>
      <trkpt lat="46.89369" lon="12.76826">
        <time>1970-01-01T00:00:00+00:00</time>
        <ele>2437.0</ele>
      </trkpt>
      <trkpt lat="46.894005" lon="12.76807">
        <time>1970-01-01T00:00:00+00:00</time>
        <ele>2435.0</ele>
      </trkpt>
      <trkpt lat="46.894164" lon="12.768114">
        <time>1970-01-01T00:00:00+00:00</time>
        <ele>2432.0</ele>
      </trkpt>
      <trkpt lat="46.895462" lon="12.767796">
        <time>1970-01-01T00:00:00+00:00</time>
        <ele>2426.0</ele>
      </trkpt>
      <trkpt lat="46.895861" lon="12.768043">
        <time>1970-01-01T00:00:00+00:00</time>
        <ele>2412.0</ele>
      </trkpt>
      <trkpt lat="46.895945" lon="12.768353">
        <time>1970-01-01T00:00:00+00:00</time>
        <ele>2403.0</ele>
      </trkpt>
      <trkpt lat="46.895432" lon="12.769457">
        <time>1970-01-01T00:00:00+00:00</time>
        <ele>2383.0</ele>
      </trkpt>
      <trkpt lat="46.895329" lon="12.770102">
        <time>1970-01-01T00:00:00+00:00</time>
        <ele>2360.0</ele>
      </trkpt>
      <trkpt lat="46.89551" lon="12.769766">
        <time>1970-01-01T00:00:00+00:00</time>
        <ele>2371.0</ele>
      </trkpt>
      <trkpt lat="46.895806" lon="12.769837">
        <time>1970-01-01T00:00:00+00:00</time>
        <ele>2355.0</ele>
      </trkpt>
      <trkpt lat="46.895993" lon="12.770164">
        <time>1970-01-01T00:00:00+00:00</time>
        <ele>2329.0</ele>
      </trkpt>
      <trkpt lat="46.895806" lon="12.771021">
        <time>1970-01-01T00:00:00+00:00</time>
        <ele>2314.0</ele>
      </trkpt>
      <trkpt lat="46.895782" lon="12.771569">
        <time>1970-01-01T00:00:00+00:00</time>
        <ele>2296.0</ele>
      </trkpt>
      <trkpt lat="46.895251" lon="12.772417">
        <time>1970-01-01T00:00:00+00:00</time>
        <ele>2314.0</ele>
      </trkpt>
      <trkpt lat="46.895704" lon="12.772947">
        <time>1970-01-01T00:00:00+00:00</time>
        <ele>2277.0</ele>
      </trkpt>
      <trkpt lat="46.895903" lon="12.773238">
        <time>1970-01-01T00:00:00+00:00</time>
        <ele>2260.0</ele>
      </trkpt>
      <trkpt lat="46.896078" lon="12.773936">
        <time>1970-01-01T00:00:00+00:00</time>
        <ele>2239.0</ele>
      </trkpt>
      <trkpt lat="46.896386" lon="12.774157">
        <time>1970-01-01T00:00:00+00:00</time>
        <ele>2217.0</ele>
      </trkpt>
      <trkpt lat="46.897267" lon="12.774608">
        <time>1970-01-01T00:00:00+00:00</time>
        <ele>2157.0</ele>
      </trkpt>
      <trkpt lat="46.897653" lon="12.774564">
        <time>1970-01-01T00:00:00+00:00</time>
        <ele>2146.0</ele>
      </trkpt>
      <trkpt lat="46.898523" lon="12.773866">
        <time>1970-01-01T00:00:00+00:00</time>
        <ele>2148.0</ele>
      </trkpt>
      <trkpt lat="46.899169" lon="12.773433">
        <time>1970-01-01T00:00:00+00:00</time>
        <ele>2174.0</ele>
      </trkpt>
      <trkpt lat="46.899748" lon="12.773459">
        <time>1970-01-01T00:00:00+00:00</time>
        <ele>2179.0</ele>
      </trkpt>
      <trkpt lat="46.900455" lon="12.773406">
        <time>1970-01-01T00:00:00+00:00</time>
        <ele>2200.0</ele>
      </trkpt>
      <trkpt lat="46.90069" lon="12.773565">
        <time>1970-01-01T00:00:00+00:00</time>
        <ele>2199.0</ele>
      </trkpt>
      <trkpt lat="46.900931" lon="12.773495">
        <time>1970-01-01T00:00:00+00:00</time>
        <ele>2209.0</ele>
      </trkpt>
      <trkpt lat="46.901161" lon="12.773309">
        <time>1970-01-01T00:00:00+00:00</time>
        <ele>2218.0</ele>
      </trkpt>
      <trkpt lat="46.901179" lon="12.771957">
        <time>1970-01-01T00:00:00+00:00</time>
        <ele>2221.0</ele>
      </trkpt>
      <trkpt lat="46.901173" lon="12.770438">
        <time>1970-01-01T00:00:00+00:00</time>
        <ele>2206.0</ele>
      </trkpt>
      <trkpt lat="46.901523" lon="12.768167">
        <time>1970-01-01T00:00:00+00:00</time>
        <ele>2207.0</ele>
      </trkpt>
      <trkpt lat="46.901831" lon="12.766595">
        <time>1970-01-01T00:00:00+00:00</time>
        <ele>2238.0</ele>
      </trkpt>
      <trkpt lat="46.902368" lon="12.764598">
        <time>1970-01-01T00:00:00+00:00</time>
        <ele>2260.0</ele>
      </trkpt>
      <trkpt lat="46.902549" lon="12.76405">
        <time>1970-01-01T00:00:00+00:00</time>
        <ele>2258.0</ele>
      </trkpt>
      <trkpt lat="46.902537" lon="12.763564">
        <time>1970-01-01T00:00:00+00:00</time>
        <ele>2262.0</ele>
      </trkpt>
      <trkpt lat="46.902477" lon="12.762619">
        <time>1970-01-01T00:00:00+00:00</time>
        <ele>2275.0</ele>
      </trkpt>
      <trkpt lat="46.902531" lon="12.76201">
        <time>1970-01-01T00:00:00+00:00</time>
        <ele>2285.0</ele>
      </trkpt>
      <trkpt lat="46.902676" lon="12.761615">
        <time>1970-01-01T00:00:00+00:00</time>
        <ele>2292.0</ele>
      </trkpt>
      <trkpt lat="46.90379" lon="12.76183">
        <time>1970-01-01T00:00:00+00:00</time>
        <ele>2217.0</ele>
      </trkpt>
      <trkpt lat="46.904699" lon="12.762302">
        <time>1970-01-01T00:00:00+00:00</time>
        <ele>2166.0</ele>
      </trkpt>
      <trkpt lat="46.904846" lon="12.763847">
        <time>1970-01-01T00:00:00+00:00</time>
        <ele>2153.0</ele>
      </trkpt>
      <trkpt lat="46.904889" lon="12.765941">
        <time>1970-01-01T00:00:00+00:00</time>
        <ele>2121.0</ele>
      </trkpt>
      <trkpt lat="46.905022" lon="12.767041">
        <time>1970-01-01T00:00:00+00:00</time>
        <ele>2104.0</ele>
      </trkpt>
      <trkpt lat="46.905001" lon="12.767645">
        <time>1970-01-01T00:00:00+00:00</time>
        <ele>2098.0</ele>
      </trkpt>
      <trkpt lat="46.904913" lon="12.768064">
        <time>1970-01-01T00:00:00+00:00</time>
        <ele>2093.0</ele>
      </trkpt>
      <trkpt lat="46.904927" lon="12.768504">
        <time>1970-01-01T00:00:00+00:00</time>
        <ele>2089.0</ele>
      </trkpt>
      <trkpt lat="46.904778" lon="12.768802">
        <time>1970-01-01T00:00:00+00:00</time>
        <ele>2084.0</ele>
      </trkpt>
      <trkpt lat="46.904566" lon="12.768717">
        <time>1970-01-01T00:00:00+00:00</time>
        <ele>2084.0</ele>
      </trkpt>
      <trkpt lat="46.904429" lon="12.768979">
        <time>1970-01-01T00:00:00+00:00</time>
        <ele>2083.0</ele>
      </trkpt>
      <trkpt lat="46.904397" lon="12.769391">
        <time>1970-01-01T00:00:00+00:00</time>
        <ele>2080.0</ele>
      </trkpt>
      <trkpt lat="46.904279" lon="12.769695">
        <time>1970-01-01T00:00:00+00:00</time>
        <ele>2082.0</ele>
      </trkpt>
      <trkpt lat="46.904396" lon="12.770768">
        <time>1970-01-01T00:00:00+00:00</time>
        <ele>2075.0</ele>
      </trkpt>
      <trkpt lat="46.904662" lon="12.770797">
        <time>1970-01-01T00:00:00+00:00</time>
        <ele>2068.0</ele>
      </trkpt>
      <trkpt lat="46.9049" lon="12.770968">
        <time>1970-01-01T00:00:00+00:00</time>
        <ele>2066.0</ele>
      </trkpt>
      <trkpt lat="46.905358" lon="12.771973">
        <time>1970-01-01T00:00:00+00:00</time>
        <ele>2059.0</ele>
      </trkpt>
      <trkpt lat="46.905816" lon="12.772011">
        <time>1970-01-01T00:00:00+00:00</time>
        <ele>2055.0</ele>
      </trkpt>
      <trkpt lat="46.906725" lon="12.771819">
        <time>1970-01-01T00:00:00+00:00</time>
        <ele>2016.0</ele>
      </trkpt>
      <trkpt lat="46.907248" lon="12.771952">
        <time>1970-01-01T00:00:00+00:00</time>
        <ele>1999.0</ele>
      </trkpt>
      <trkpt lat="46.90748" lon="12.772365">
        <time>1970-01-01T00:00:00+00:00</time>
        <ele>1987.0</ele>
      </trkpt>
      <trkpt lat="46.907638" lon="12.772481">
        <time>1970-01-01T00:00:00+00:00</time>
        <ele>1981.0</ele>
      </trkpt>
      <trkpt lat="46.907539" lon="12.772532">
        <time>1970-01-01T00:00:00+00:00</time>
        <ele>1981.0</ele>
      </trkpt>
      <trkpt lat="46.907351" lon="12.772983">
        <time>1970-01-01T00:00:00+00:00</time>
        <ele>1970.0</ele>
      </trkpt>
      <trkpt lat="46.907124" lon="12.77301">
        <time>1970-01-01T00:00:00+00:00</time>
        <ele>1974.0</ele>
      </trkpt>
      <trkpt lat="46.907014" lon="12.773331">
        <time>1970-01-01T00:00:00+00:00</time>
        <ele>1976.0</ele>
      </trkpt>
      <trkpt lat="46.907015" lon="12.774084">
        <time>1970-01-01T00:00:00+00:00</time>
        <ele>1969.0</ele>
      </trkpt>
      <trkpt lat="46.906965" lon="12.774559">
        <time>1970-01-01T00:00:00+00:00</time>
        <ele>1962.0</ele>
      </trkpt>
      <trkpt lat="46.906816" lon="12.775273">
        <time>1970-01-01T00:00:00+00:00</time>
        <ele>1953.0</ele>
      </trkpt>
      <trkpt lat="46.906792" lon="12.775393">
        <time>1970-01-01T00:00:00+00:00</time>
        <ele>1951.0</ele>
      </trkpt>
      <trkpt lat="46.906869" lon="12.775386">
        <time>1970-01-01T00:00:00+00:00</time>
        <ele>1949.0</ele>
      </trkpt>
      <trkpt lat="46.907214" lon="12.774985">
        <time>1970-01-01T00:00:00+00:00</time>
        <ele>1940.0</ele>
      </trkpt>
      <trkpt lat="46.907363" lon="12.775379">
        <time>1970-01-01T00:00:00+00:00</time>
        <ele>1922.0</ele>
      </trkpt>
      <trkpt lat="46.907478" lon="12.775407">
        <time>1970-01-01T00:00:00+00:00</time>
        <ele>1914.0</ele>
      </trkpt>
      <trkpt lat="46.907531" lon="12.775175">
        <time>1970-01-01T00:00:00+00:00</time>
        <ele>1914.0</ele>
      </trkpt>
      <trkpt lat="46.907718" lon="12.77568">
        <time>1970-01-01T00:00:00+00:00</time>
        <ele>1891.0</ele>
      </trkpt>
      <trkpt lat="46.907852" lon="12.775322">
        <time>1970-01-01T00:00:00+00:00</time>
        <ele>1885.0</ele>
      </trkpt>
      <trkpt lat="46.90791" lon="12.775596">
        <time>1970-01-01T00:00:00+00:00</time>
        <ele>1879.0</ele>
      </trkpt>
      <trkpt lat="46.908552" lon="12.775428">
        <time>1970-01-01T00:00:00+00:00</time>
        <ele>1852.0</ele>
      </trkpt>
      <trkpt lat="46.909176" lon="12.77564">
        <time>1970-01-01T00:00:00+00:00</time>
        <ele>1831.0</ele>
      </trkpt>
      <trkpt lat="46.909342" lon="12.775815">
        <time>1970-01-01T00:00:00+00:00</time>
        <ele>1825.0</ele>
      </trkpt>
      <trkpt lat="46.90955" lon="12.775732">
        <time>1970-01-01T00:00:00+00:00</time>
        <ele>1821.0</ele>
      </trkpt>
      <trkpt lat="46.909786" lon="12.775779">
        <time>1970-01-01T00:00:00+00:00</time>
        <ele>1817.0</ele>
      </trkpt>
      <trkpt lat="46.90999" lon="12.775759">
        <time>1970-01-01T00:00:00+00:00</time>
        <ele>1816.0</ele>
      </trkpt>
      <trkpt lat="46.91022" lon="12.775863">
        <time>1970-01-01T00:00:00+00:00</time>
        <ele>1809.0</ele>
      </trkpt>
      <trkpt lat="46.910513" lon="12.775787">
        <time>1970-01-01T00:00:00+00:00</time>
        <ele>1803.0</ele>
      </trkpt>
      <trkpt lat="46.910572" lon="12.775926">
        <time>1970-01-01T00:00:00+00:00</time>
        <ele>1796.0</ele>
      </trkpt>
      <trkpt lat="46.910738" lon="12.776041">
        <time>1970-01-01T00:00:00+00:00</time>
        <ele>1787.0</ele>
      </trkpt>
      <trkpt lat="46.910765" lon="12.776113">
        <time>1970-01-01T00:00:00+00:00</time>
        <ele>1783.0</ele>
      </trkpt>
      <trkpt lat="46.910703" lon="12.7762">
        <time>1970-01-01T00:00:00+00:00</time>
        <ele>1782.0</ele>
      </trkpt>
      <trkpt lat="46.910686" lon="12.776339">
        <time>1970-01-01T00:00:00+00:00</time>
        <ele>1779.0</ele>
      </trkpt>
      <trkpt lat="46.910925" lon="12.776442">
        <time>1970-01-01T00:00:00+00:00</time>
        <ele>1771.0</ele>
      </trkpt>
      <trkpt lat="46.911055" lon="12.776549">
        <time>1970-01-01T00:00:00+00:00</time>
        <ele>1766.0</ele>
      </trkpt>
      <trkpt lat="46.911158" lon="12.776541">
        <time>1970-01-01T00:00:00+00:00</time>
        <ele>1765.0</ele>
      </trkpt>
      <trkpt lat="46.911126" lon="12.776771">
        <time>1970-01-01T00:00:00+00:00</time>
        <ele>1758.0</ele>
      </trkpt>
      <trkpt lat="46.911066" lon="12.776863">
        <time>1970-01-01T00:00:00+00:00</time>
        <ele>1756.0</ele>
      </trkpt>
      <trkpt lat="46.911096" lon="12.77693">
        <time>1970-01-01T00:00:00+00:00</time>
        <ele>1753.0</ele>
      </trkpt>
      <trkpt lat="46.911386" lon="12.776976">
        <time>1970-01-01T00:00:00+00:00</time>
        <ele>1751.0</ele>
      </trkpt>
      <trkpt lat="46.911643" lon="12.776938">
        <time>1970-01-01T00:00:00+00:00</time>
        <ele>1750.0</ele>
      </trkpt>
      <trkpt lat="46.911727" lon="12.776958">
        <time>1970-01-01T00:00:00+00:00</time>
        <ele>1746.0</ele>
      </trkpt>
      <trkpt lat="46.911738" lon="12.777105">
        <time>1970-01-01T00:00:00+00:00</time>
        <ele>1742.0</ele>
      </trkpt>
      <trkpt lat="46.91218" lon="12.777144">
        <time>1970-01-01T00:00:00+00:00</time>
        <ele>1724.0</ele>
      </trkpt>
      <trkpt lat="46.912443" lon="12.777232">
        <time>1970-01-01T00:00:00+00:00</time>
        <ele>1719.0</ele>
      </trkpt>
      <trkpt lat="46.912543" lon="12.777287">
        <time>1970-01-01T00:00:00+00:00</time>
        <ele>1718.0</ele>
      </trkpt>
      <trkpt lat="46.912757" lon="12.777295">
        <time>1970-01-01T00:00:00+00:00</time>
        <ele>1716.0</ele>
      </trkpt>
      <trkpt lat="46.912852" lon="12.777204">
        <time>1970-01-01T00:00:00+00:00</time>
        <ele>1717.0</ele>
      </trkpt>
      <trkpt lat="46.913273" lon="12.77726">
        <time>1970-01-01T00:00:00+00:00</time>
        <ele>1711.0</ele>
      </trkpt>
      <trkpt lat="46.913489" lon="12.777172">
        <time>1970-01-01T00:00:00+00:00</time>
        <ele>1709.0</ele>
      </trkpt>
      <trkpt lat="46.913925" lon="12.776854">
        <time>1970-01-01T00:00:00+00:00</time>
        <ele>1705.0</ele>
      </trkpt>
      <trkpt lat="46.914053" lon="12.776845">
        <time>1970-01-01T00:00:00+00:00</time>
        <ele>1704.0</ele>
      </trkpt>
      <trkpt lat="46.914156" lon="12.776875">
        <time>1970-01-01T00:00:00+00:00</time>
        <ele>1703.0</ele>
      </trkpt>
      <trkpt lat="46.914563" lon="12.776811">
        <time>1970-01-01T00:00:00+00:00</time>
        <ele>1691.0</ele>
      </trkpt>
      <trkpt lat="46.914739" lon="12.776696">
        <time>1970-01-01T00:00:00+00:00</time>
        <ele>1686.0</ele>
      </trkpt>
      <trkpt lat="46.914832" lon="12.776695">
        <time>1970-01-01T00:00:00+00:00</time>
        <ele>1681.0</ele>
      </trkpt>
      <trkpt lat="46.914908" lon="12.776463">
        <time>1970-01-01T00:00:00+00:00</time>
        <ele>1683.0</ele>
      </trkpt>
      <trkpt lat="46.914975" lon="12.776337">
        <time>1970-01-01T00:00:00+00:00</time>
        <ele>1681.0</ele>
      </trkpt>
      <trkpt lat="46.915105" lon="12.776209">
        <time>1970-01-01T00:00:00+00:00</time>
        <ele>1678.0</ele>
      </trkpt>
    </trkseg>
  </trk>
</gpx>
